GFSFLT1_con_mucape_000.txt.gz
CAPE
0 0 0 0 0 0 0 0 0 0 0 0 0 0 0 0 0 0 0 0 0 0 0 0 0 0 0 0 0 0 0 0
0 0 0 0 0 0 0 0 0 0 0 0 0 0 0 0 0 0 0 0 0 0 0 0 0 0 0 0 0 0 0 0
0 0 0 0 0 0 0 0 0 0 0 0 0 0 0 0 0 0 0 0 0 0 0 0 0 0 0 0 0 0 0 0
0 0 0 0 0 0 0 0 0 0 0 0 0 0 0 0 0 0 0 0 0 0 0 0 0 0 0 0 0 0 0 0
0 0 0 0 0 0 0 0 0 0 0 0 0 0 0 0 0 0 0 0 0 0 0 0 0 0 1 9 4 14 0 0
0 0 0 0 0 0 0 0 0 0 0 0 0 0 0 0 0 0 0 0 0 0 0 0 0 0 0 8 1 4 1 0
0 0 0 0 0 0 0 0 0 0 0 0 1 0 0 0 0 0 0 0 0 0 0 0 0 0 0 0 0 8 0 2
0 0 0 0 0 0 0 0 0 0 0 0 0 0 0 0 0 0 0 0 0 0 0 0 0 0 0 0 5 32 11 8
0 0 0 0 0 0 0 0 0 0 0 0 0 0 0 0 0 0 0 0 0 0 0 0 0 0 3 7 20 43 5 2
0 4 5 1 0 0 0 0 0 0 0 0 0 0 0 0 0 0 0 0 0 0 0 0 0 2 14 26 8 4 27 1
1 1 0 0 0 0 1 1 0 0 0 0 0 0 0 0 0 0 0 0 0 0 0 1 7 1 3 0 0 0 0 0
0 0 0 0 0 5 1 0 0 0 0 0 0 0 0 0 0 0 0 0 0 2 0 0 0 0 1 0 0 0 0 0
0 0 0 1 0 0 0 0 0 0 0 0 0 0 0 0 0 0 0 0 0 0 0 1 0 0 0 0 0 0 0 0
4 7 5 9 0 0 0 0 0 0 0 0 0 0 0 0 0 0 0 0 0 0 0 0 0 0 0 0 0 0 0 0
0 0 0 0 0 0 0 0 0 0 0 0 0 0 0 0 0 0 0 0 0 0 0 0 0 0 0 0 0 0 0 0
0 0 2 0 0 3 0 0 0 0 0 0 0 0 0 0 0 0 0 0 0 0 0 0 0 0 0 0 0 0 0 0
0 0 0 0 0 2 0 0 0 0 0 0 0 0 0 0 0 0 0 0 0 0 0 0 0 0 0 0 0 0 0 0
2 0 0 0 0 0 0 0 0 0 0 3 1 0 0 0 0 0 0 0 0 0 0 0 0 0 0 0 0 0 0 0
0 0 7 0 15 0 0 0 0 0 0 0 0 0 0 0 0 0 0 0 0 0 0 0 0 0 0 0 0 0 0 0

GFSFLT1_con_mucape_003.txt.gz
CAPE
30 0 0 1 136 79 0 0 2 7 0 0 0 0 0 0 0 0 0 0 0 7 0 0 0 0 0 0 0 0 0 0
0 0 0 0 0 0 0 0 0 0 0 0 0 0 0 0 0 0 0 0 0 0 0 0 0 0 0 0 0 0 0 0
0 0 0 0 0 0 0 0 0 0 0 0 0 0 0 0 0 0 0 0 0 0 0 0 0 0 0 4 0 0 0 0
0 0 0 0 0 0 0 0 0 0 0 0 0 0 0 1 0 0 0 0 0 0 0 0 0 0 0 4 3 7 8 1
0 0 0 0 0 0 0 0 0 0 0 0 0 0 0 0 0 0 0 0 0 0 0 0 0 0 0 0 0 0 10 29
0 0 0 0 0 0 0 0 0 0 0 0 0 0 0 0 0 0 0 0 0 0 0 0 0 0 0 0 0 0 0 0
0 0 0 0 0 0 0 0 0 0 0 0 0 1 0 0 0 0 0 0 0 0 0 0 0 0 0 0 0 0 0 0
0 0 0 0 0 0 0 0 3 0 0 5 0 0 0 0 0 0 0 0 0 0 0 0 0 0 0 0 0 0 0 0
2 0 0 1 5 4 0 0 1 0 0 0 0 0 0 0 0 0 0 0 0 0 0 0 0 0 0 0 0 0 0 2
0 0 0 0 0 0 0 0 0 0 0 0 0 0 0 0 0 0 0 0 0 0 0 0 0 0 3 8 0 0 5 1
0 3 2 1 1 1 0 0 0 0 0 0 0 0 0 0 0 0 0 0 0 0 0 0 0 0 0 2 14 0 0 0
0 0 7 11 13 0 0 0 0 0 0 0 0 0 0 0 0 0 0 0 0 0 0 0 0 4 0 0 0 0 0 0
0 0 0 0 0 0 0 0 0 0 0 0 0 0 0 0 0 0 0 0 0 0 0 2 0 1 0 0 0 0 0 0
0 0 0 0 0 0 0 3 2 0 0 0 0 0 0 0 0 0 0 0 0 0 1 0 0 0 0 0 0 0 0 0
0 0 0 14 0 0 0 6 5 0 0 0 0 0 0 0 0 0 0 0 0 0 0 0 0 0 0 0 0 0 0 0
0 0 0 5 1 0 0 0 0 0 0 0 0 5 0 0 0 0 0 0 0 0 0 0 0 0 0 0 0 0 0 0
0 0 0 0 0 0 0 0 0 0 0 0 0 0 0 0 0 0 0 0 0 0 0 0 0 0 0 0 0 0 0 0
0 0 0 0 0 0 0 0 0 0 0 0 0 0 0 0 0 0 0 0 0 0 0 0 0 0 0 0 0 0 0 0
2 0 0 0 0 0 0 0 0 0 0 0 0 0 0 0 0 0 0 0 0 0 0 0 0 0 0 0 0 0 0 0

GFSFLT1_con_mucape_006.txt.gz
CAPE
36 16 92 54 183 703 705 103 40 67 35 6 0 0 0 0 0 0 0 0 0 3 5 23 47 52 34 13 18 12 2 0
0 0 0 0 185 225 61 31 0 0 0 0 0 0 0 0 0 0 0 0 0 0 0 4 16 22 35 63 55 53 32 15
0 0 0 0 2 29 0 0 0 0 0 0 0 0 0 0 0 0 0 0 0 0 0 0 0 0 0 12 41 50 57 38
0 0 0 0 0 0 0 0 0 0 0 0 0 0 0 0 0 0 0 0 0 0 0 0 0 0 0 0 0 2 8 55
0 0 0 0 0 0 0 0 0 0 0 0 0 0 0 0 1 0 0 0 0 0 0 0 0 0 0 0 0 0 9 14
0 0 0 0 0 0 0 0 0 0 0 0 0 0 1 1 0 0 0 0 0 0 0 0 0 0 0 0 0 0 2 22
0 0 0 0 0 0 0 0 0 0 0 0 2 2 1 0 0 0 0 0 0 0 0 0 0 0 0 0 2 5 7 12
0 0 0 0 0 0 0 0 0 0 0 0 0 0 0 0 0 0 0 0 0 0 0 0 0 0 0 5 13 14 0 0
1 0 0 0 0 3 0 5 3 3 0 0 0 0 0 0 0 0 0 0 0 0 1 5 13 20 44 55 33 3 8 0
0 0 0 0 0 1 2 0 0 0 0 0 0 0 0 0 0 0 0 0 0 2 16 12 0 0 0 0 0 0 3 0
0 0 0 3 2 0 0 0 0 0 0 0 0 0 0 0 0 0 0 5 21 11 3 0 0 0 0 0 0 0 0 0
9 1 0 0 0 0 0 2 2 0 0 1 0 0 0 0 0 0 8 17 9 7 0 0 0 0 0 0 0 0 0 0
15 11 2 5 2 0 0 0 1 4 6 0 0 0 0 0 18 18 15 33 39 39 24 0 0 0 0 0 0 0 0 0
3 15 8 0 0 0 4 5 0 0 0 0 0 8 17 18 24 31 45 39 35 36 36 0 0 0 0 0 0 0 0 0
26 14 7 0 0 0 0 0 0 0 0 0 5 16 27 29 24 15 20 26 7 0 0 0 0 0 0 0 0 0 3 0
1 0 0 1 0 0 0 0 0 0 1 1 1 2 3 0 0 0 0 0 0 0 0 0 0 0 0 0 0 8 21 19
0 0 0 0 0 0 0 0 0 0 6 0 1 6 0 0 0 0 0 0 0 0 0 0 1 0 0 0 0 0 0 0
0 0 0 0 0 14 0 0 0 3 2 3 15 2 0 0 0 0 0 0 0 0 1 3 8 10 0 0 0 0 0 0
0 0 0 1 29 10 0 0 0 2 5 11 15 0 0 0 0 0 0 0 1 3 9 0 0 0 0 0 0 0 0 0

GFSFLT1_con_mucape_009.txt.gz
CAPE
240 413 93 101 109 279 591 649 3 34 63 59 1 0 0 0 0 0 0 0 0 0 2 37 69 29 73 130 266 108 240 193
119 0 0 41 440 559 537 94 35 15 5 0 0 0 0 1 3 0 0 0 0 0 0 0 0 0 25 89 120 148 173 219
0 0 1 28 166 121 92 55 20 0 0 0 0 0 0 1 3 0 0 0 0 0 0 0 0 0 4 54 95 72 110 193
0 0 0 0 0 0 14 30 7 0 0 0 0 0 0 0 0 0 0 0 0 0 0 0 0 0 0 25 26 39 34 50
0 0 0 0 0 0 0 0 0 0 0 0 0 0 0 0 0 0 0 0 0 0 0 0 0 0 0 0 2 6 30 11
0 0 0 0 0 0 0 0 0 0 0 0 0 0 0 0 0 0 0 0 0 0 0 0 0 0 0 6 16 17 19 33
0 0 0 0 0 0 0 0 0 0 0 4 15 3 0 0 0 0 0 0 0 0 0 0 0 8 11 12 28 38 19 34
0 0 0 0 0 0 0 1 10 5 0 0 0 0 0 0 0 0 0 0 0 0 0 0 0 18 37 56 54 21 22 5
0 0 0 4 2 0 0 6 2 0 3 0 0 0 0 0 0 0 0 0 0 2 13 28 34 33 42 34 32 26 1 21
3 8 18 3 4 4 0 0 0 0 2 5 6 0 0 0 0 0 0 0 0 12 25 29 45 39 34 15 26 1 15 34
32 27 17 23 16 6 10 5 3 19 26 3 0 0 0 0 0 0 5 13 20 32 51 43 43 3 10 8 32 18 0 0
41 39 21 29 34 46 35 22 11 3 3 1 0 0 0 2 7 21 17 17 24 32 29 32 39 30 47 65 42 4 40 59
27 37 26 22 28 17 21 0 0 0 0 0 1 6 9 16 27 7 28 41 49 46 51 44 47 59 50 36 41 50 0 3
11 29 26 13 13 2 0 2 1 2 0 1 3 6 7 16 19 22 30 34 36 40 51 39 22 24 15 12 18 26 35 36
7 2 0 0 1 2 2 0 25 21 12 4 7 6 11 17 16 21 13 0 0 0 4 7 8 7 4 13 7 3 4 15
1 0 0 0 0 0 0 34 33 27 21 14 14 14 18 14 14 0 0 0 0 5 8 12 16 16 8 0 0 0 2 6
0 0 0 0 0 0 1 40 35 28 31 28 23 29 8 17 0 0 0 2 6 8 15 20 28 19 0 0 0 0 0 0
0 0 0 0 1 14 58 51 53 56 56 43 39 17 31 13 0 2 9 12 19 23 27 31 28 30 0 0 0 0 0 0
2 11 5 2 1 7 72 48 75 68 58 30 28 30 32 0 11 10 15 23 31 31 29 24 26 0 0 0 0 0 0 0

GFSFLT1_con_mucape_012.txt.gz
CAPE
137 118 302 287 476 341 755 766 210 88 164 108 13 2 5 20 6 0 0 0 0 0 0 1 27 0 0 0 0 0 0 0
223 213 150 364 570 223 276 224 32 33 56 5 0 0 1 1 1 0 0 0 0 0 0 0 0 0 0 0 0 0 0 0
86 154 151 97 199 210 63 64 74 53 17 0 0 0 0 0 4 0 0 0 0 0 0 0 0 0 0 0 0 0 0 0
0 28 43 25 27 75 69 41 55 64 31 5 0 0 0 0 0 0 0 0 0 0 0 0 0 0 0 0 0 0 0 0
0 0 0 0 0 0 0 0 0 0 0 0 0 0 0 0 0 0 0 0 0 0 0 0 0 0 0 0 0 0 0 0
0 0 0 0 0 0 0 0 0 0 0 0 0 0 0 0 0 0 0 0 0 0 0 0 0 0 0 6 0 0 0 0
0 0 0 0 0 0 0 0 0 0 0 0 0 0 0 0 0 0 0 0 0 0 0 0 1 14 21 8 13 12 12 10
2 2 1 1 0 0 0 0 0 1 3 1 1 0 0 0 0 0 0 0 0 0 0 5 13 13 14 10 13 10 8 7
0 0 0 7 19 9 23 6 0 0 6 3 2 0 0 0 0 0 0 0 0 0 2 7 2 1 2 6 7 4 4 13
23 31 37 18 16 16 13 18 16 3 0 0 1 2 2 0 0 0 0 1 0 0 0 0 1 0 10 13 9 11 11 11
33 11 6 2 5 19 24 4 15 12 14 12 3 2 0 0 0 1 0 0 0 0 9 13 16 9 16 13 7 4 14 19
0 2 4 5 1 0 0 6 25 15 2 0 0 2 1 6 6 0 0 0 2 17 19 12 10 11 25 26 20 21 10 0
0 1 0 3 13 16 0 1 5 1 0 0 0 11 5 0 0 0 0 5 11 18 22 20 27 30 22 38 31 41 41 42
0 0 0 0 0 0 0 0 0 0 0 0 0 5 0 0 0 5 1 7 16 0 0 0 0 0 0 1 1 5 0 0
2 0 0 0 0 0 0 8 26 21 11 9 0 0 0 0 0 0 2 2 0 0 6 9 11 4 5 3 0 0 0 0
1 0 0 0 0 0 1 12 50 44 40 3 19 4 0 0 0 0 0 0 0 4 3 8 12 17 7 0 0 0 0 0
0 0 0 0 8 13 6 11 77 60 30 1 14 15 0 0 0 0 0 0 3 3 11 12 14 8 2 0 0 0 0 0
0 0 6 17 1 0 0 16 68 71 71 79 37 16 4 0 8 0 0 0 0 11 22 18 1 0 0 0 0 0 0 0
0 4 4 3 0 1 0 0 0 13 76 61 9 2 0 14 8 0 0 0 3 18 25 2 0 0 0 0 0 0 0 0

GFSFLT1_con_mucape_015.txt.gz
CAPE
65 43 57 112 305 298 535 330 160 17 42 29 26 6 0 0 0 0 0 0 0 0 0 0 0 0 0 0 0 0 0 0
3 6 32 84 166 300 207 92 48 50 38 47 46 29 1 0 0 0 9 7 0 0 0 0 0 0 0 0 0 0 0 0
93 87 132 75 127 160 97 122 106 64 68 55 52 24 3 0 0 0 0 0 0 0 0 0 0 0 0 0 0 0 0 0
158 145 59 109 99 105 77 51 32 25 38 29 15 1 0 0 0 0 0 0 0 0 0 0 0 0 0 0 0 0 0 0
3 39 9 0 0 0 0 0 0 0 0 0 0 0 0 0 0 0 0 0 0 0 0 0 0 0 0 0 0 0 0 0
0 0 0 0 0 0 0 0 0 0 0 0 0 0 0 0 0 0 0 0 0 0 0 0 0 0 0 0 0 0 4 14
0 0 0 0 0 0 0 0 0 0 0 0 0 0 0 0 0 0 0 0 0 0 0 0 0 0 0 0 1 0 6 8
0 0 0 0 0 0 0 0 0 0 0 0 0 2 6 12 4 2 0 0 0 0 0 0 0 0 0 3 8 9 15 11
0 0 0 1 9 3 0 0 0 0 0 0 0 2 4 14 6 2 0 0 0 0 0 0 0 0 0 0 5 15 19 4
0 0 0 0 0 0 0 0 0 0 10 21 34 41 31 23 2 0 0 0 0 0 0 0 0 0 6 14 15 7 0 0
0 0 1 1 1 0 0 0 5 14 4 10 24 46 35 0 0 0 0 0 0 0 0 0 2 3 15 28 29 14 21 11
0 0 0 0 2 0 0 0 0 0 0 0 1 0 0 0 0 0 0 0 0 0 0 0 0 0 3 11 17 31 30 5
0 0 0 0 0 0 0 0 0 0 0 0 0 9 2 0 0 0 0 0 0 0 0 0 0 0 0 0 0 0 0 0
0 0 0 0 0 0 0 0 0 0 8 16 12 18 12 1 0 6 1 0 0 0 0 0 0 0 0 0 0 0 0 0
0 0 0 0 0 0 0 0 0 1 24 20 27 25 10 9 0 15 18 0 0 0 0 0 0 0 0 0 0 0 0 0
0 0 0 0 0 0 0 0 0 5 16 25 41 25 13 17 35 26 6 0 0 0 0 0 0 0 0 0 0 0 0 0
0 0 0 0 0 0 0 0 0 0 0 2 37 37 30 26 23 5 0 0 0 0 0 0 0 0 0 0 0 0 0 0
0 0 0 0 0 0 0 0 0 0 0 2 7 16 13 16 3 11 10 4 0 0 0 0 0 0 2 2 0 0 0 0
0 0 0 0 0 0 0 0 0 0 0 0 7 19 20 19 13 2 9 0 0 0 0 0 1 1 0 0 0 0 0 0

GFSFLT1_con_mucape_018.txt.gz
CAPE
278 271 152 658 697 664 395 265 74 35 87 44 12 0 15 11 0 0 0 0 7 16 13 6 0 0 0 0 0 0 0 0
192 320 120 560 622 426 117 76 50 27 29 26 9 13 18 10 0 0 4 4 4 0 0 0 0 0 0 0 0 0 0 0
102 86 168 308 191 60 30 8 11 14 18 28 52 36 44 29 3 13 10 1 0 0 0 0 0 0 0 0 0 0 0 0
118 96 52 84 72 19 2 0 0 6 19 24 20 11 5 1 0 0 0 0 0 0 0 0 0 0 0 0 0 0 0 0
44 35 26 32 0 0 0 0 0 0 0 0 0 0 0 0 0 0 0 0 0 0 0 0 0 0 0 0 0 0 5 2
0 0 0 0 0 0 0 0 0 0 0 0 0 0 0 0 0 0 0 2 2 0 0 0 0 0 0 0 0 0 0 3
0 0 0 0 0 0 0 0 0 0 0 0 0 0 0 0 5 14 14 2 11 4 0 0 0 0 0 0 0 0 2 6
0 0 0 0 0 0 0 0 0 0 0 0 0 0 3 15 21 18 16 2 7 0 0 0 0 0 0 0 0 0 0 1
0 0 0 0 0 0 0 2 6 0 0 0 2 12 8 19 29 29 16 3 0 0 0 0 0 0 0 0 0 1 12 0
0 0 0 0 0 3 14 11 0 0 0 0 0 0 0 0 0 0 0 0 0 0 0 0 0 0 0 2 1 0 2 10
0 0 0 0 0 0 0 2 1 0 0 0 0 0 0 0 0 0 0 0 0 0 0 0 0 0 0 0 0 0 0 0
0 0 0 0 0 0 0 0 0 0 0 0 0 0 0 3 0 1 12 14 10 0 18 6 0 0 0 0 0 0 0 0
2 0 0 0 0 0 0 0 0 0 0 0 2 4 2 15 14 28 30 22 7 7 0 0 0 0 0 0 0 0 0 0
6 0 0 0 0 0 0 0 0 0 0 0 0 0 11 28 26 26 12 12 16 7 0 9 0 0 0 0 0 0 0 0
0 0 0 0 0 0 0 0 0 0 0 0 0 2 25 40 32 7 13 23 18 5 0 0 0 0 0 0 0 0 0 0
0 1 0 0 0 0 0 0 0 0 0 0 0 1 0 19 39 38 33 27 0 0 0 0 0 0 0 0 0 0 0 0
2 0 0 0 0 0 0 0 0 0 0 0 0 0 1 19 26 41 51 0 0 0 3 0 0 0 4 2 0 0 0 0
0 0 0 0 0 0 0 0 0 0 0 0 0 0 0 0 0 15 19 4 0 0 0 0 0 2 0 0 0 0 0 0
0 0 0 0 0 0 0 0 0 0 0 0 0 0 0 0 2 8 3 0 0 1 3 0 0 0 0 0 0 0 0 0

GFSFLT1_con_mucape_021.txt.gz
CAPE
272 279 212 272 466 428 249 158 104 51 62 43 26 17 14 18 29 40 33 20 21 10 11 15 0 0 0 0 0 0 0 0
193 458 452 485 576 435 219 192 64 60 70 65 34 35 30 35 44 26 41 15 11 1 0 0 0 0 0 0 0 0 0 0
316 590 748 586 325 113 50 48 83 119 81 59 51 55 52 41 11 16 2 0 0 1 0 0 0 0 0 0 0 0 0 0
131 121 51 40 29 3 0 0 0 14 62 32 20 7 0 0 0 0 0 0 0 0 0 0 0 0 0 0 0 0 0 0
7 14 19 4 0 0 0 0 0 0 0 0 0 0 0 0 0 0 0 2 2 5 1 0 0 0 0 0 0 0 0 0
1 0 0 0 0 0 0 0 0 0 0 0 0 0 0 0 0 2 6 14 16 0 14 3 0 0 0 0 0 0 0 0
0 0 0 0 0 0 0 0 0 0 0 0 0 0 0 2 6 6 8 10 9 0 0 0 0 0 0 0 0 0 0 0
5 0 0 0 0 0 0 0 0 0 0 0 0 0 0 0 4 3 0 0 0 0 0 0 0 0 0 0 0 0 0 0
0 0 0 0 0 0 0 0 0 0 0 0 0 0 0 0 0 0 0 0 0 0 0 0 0 0 0 0 0 0 0 0
0 0 0 0 0 0 0 0 0 0 0 0 0 0 0 0 0 0 0 0 0 2 3 5 14 4 1 0 0 0 0 0
0 0 0 0 0 0 0 0 0 0 0 0 0 0 0 0 0 1 4 4 7 20 30 10 0 0 0 0 0 0 0 0
0 3 0 0 0 0 0 0 0 0 0 0 0 0 0 1 0 2 13 31 34 11 10 0 3 1 0 0 0 0 0 0
3 14 18 11 1 0 0 0 0 0 0 0 0 0 0 0 1 7 21 16 10 9 3 5 1 2 0 0 0 0 0 0
5 8 9 2 2 1 0 0 0 0 0 0 0 0 0 0 0 0 3 0 0 10 18 2 0 0 0 0 0 0 0 0
0 1 5 2 1 0 0 0 0 0 0 0 0 0 0 0 0 0 0 0 18 17 0 0 0 0 0 0 0 1 2 0
5 1 1 5 0 0 0 0 0 0 0 0 0 0 0 0 0 0 0 9 16 6 2 0 0 0 0 0 2 0 0 0
7 9 11 0 0 0 0 0 0 0 0 0 0 0 0 0 0 0 0 24 21 5 0 0 0 0 0 0 0 0 0 0
7 8 2 0 0 0 0 0 0 0 0 0 0 0 0 0 0 0 0 2 7 0 0 0 0 0 0 0 0 0 0 0
0 0 0 0 0 0 0 0 0 0 0 0 0 0 0 0 0 0 0 0 0 0 0 0 0 0 0 0 0 0 0 0

GFSFLT1_con_mucape_024.txt.gz
CAPE
193 231 201 193 183 271 263 171 61 54 86 68 39 51 42 21 40 39 40 12 0 1 4 0 0 0 0 0 0 0 0 0
313 253 238 225 209 302 186 183 99 95 72 66 75 57 40 33 14 1 1 0 0 0 0 0 0 0 0 0 0 0 0 0
500 407 311 303 289 233 53 35 23 28 27 36 23 22 7 6 1 0 0 0 0 0 0 0 0 0 0 0 0 0 0 0
356 222 35 24 6 0 0 9 10 0 0 0 0 0 0 0 0 0 0 0 0 0 0 1 1 0 0 0 0 0 0 0
3 0 0 1 0 0 0 0 0 0 0 0 0 0 0 0 0 0 1 3 0 2 3 2 0 0 0 0 0 0 0 0
0 0 0 0 0 0 0 0 0 0 0 0 0 0 0 0 0 2 7 4 0 2 0 0 0 0 0 0 0 0 0 0
7 0 0 0 0 0 0 0 0 0 0 0 0 0 0 0 0 3 1 0 0 0 0 0 0 0 0 0 0 0 0 0
0 0 0 0 0 0 0 0 0 0 0 0 0 0 0 0 0 0 0 0 0 0 0 0 0 1 0 0 0 0 0 0
1 0 3 0 0 0 0 0 0 0 0 0 0 0 0 0 0 0 0 0 0 0 0 3 9 2 0 0 0 0 0 0
0 1 0 0 0 0 0 0 0 0 0 0 0 0 0 0 0 0 0 0 0 0 8 7 7 15 0 0 1 0 0 0
7 0 0 0 0 0 0 0 0 0 0 0 0 0 0 0 0 0 0 0 0 2 8 18 36 22 1 3 0 0 0 0
1 0 1 4 9 10 1 0 0 0 0 0 0 0 0 0 0 0 0 0 0 2 20 30 24 5 10 8 0 0 0 0
0 3 8 17 17 10 0 0 0 0 0 0 0 0 0 0 0 0 0 0 0 0 5 5 8 1 0 0 0 0 0 0
4 5 10 16 19 12 2 0 0 0 0 0 0 0 0 0 0 0 0 0 0 0 3 23 2 0 0 0 0 0 0 0
0 1 5 10 6 0 1 0 0 0 0 0 0 0 0 0 0 0 0 0 0 7 28 22 5 0 0 0 0 0 0 0
0 1 9 6 0 1 0 0 0 0 0 0 0 0 0 0 0 0 0 0 4 22 1 1 1 3 0 0 0 0 0 0
0 9 6 10 3 0 0 0 0 0 0 0 0 0 0 0 0 0 0 0 7 0 9 0 0 0 0 0 0 0 0 0
12 25 20 12 1 0 0 0 0 0 0 0 0 0 0 0 0 0 0 0 0 0 0 0 0 0 0 0 0 0 0 0
23 20 5 0 0 0 0 0 0 0 0 0 0 0 0 0 0 0 1 0 0 0 0 0 0 0 0 0 0 0 0 0

GFSFLT1_con_mucape_027.txt.gz
CAPE
180 161 168 127 127 110 154 184 192 17 13 55 65 68 68 42 68 50 37 0 0 0 0 0 0 0 0 0 0 0 0 0
168 193 193 242 172 104 163 123 76 18 72 81 14 15 40 39 15 0 0 0 0 0 0 0 0 0 0 0 0 0 0 0
305 232 168 176 146 186 243 134 49 20 12 0 0 0 0 0 0 0 0 0 0 0 0 0 0 0 0 0 0 0 0 0
308 295 267 207 197 102 62 49 39 0 0 0 2 0 0 0 0 0 0 0 0 0 0 0 0 0 0 0 0 0 0 0
118 214 62 5 0 0 10 36 0 0 0 0 0 0 0 0 0 0 0 1 0 0 0 0 0 0 0 0 0 0 0 0
3 0 0 0 0 0 0 0 0 0 0 0 0 0 0 0 0 0 0 0 0 0 0 0 0 0 0 0 0 0 0 0
6 1 0 0 0 0 0 0 0 0 0 0 0 0 0 0 0 0 0 0 0 0 0 0 0 0 0 0 1 0 3 0
1 0 0 0 1 0 0 0 0 0 0 0 0 0 0 0 0 0 0 0 0 0 0 0 0 5 5 4 4 20 27 2
0 4 4 0 0 0 0 0 0 0 0 0 0 0 0 0 0 0 0 0 0 0 0 0 8 9 3 11 20 37 50 0
1 0 0 0 0 0 0 0 2 2 0 0 0 0 0 0 0 0 0 0 0 0 0 0 0 2 14 20 12 19 0 0
0 0 0 0 0 1 5 18 16 11 0 0 0 0 0 0 0 0 0 0 0 0 0 0 0 10 10 0 1 0 0 0
0 0 0 1 5 10 17 16 25 1 0 0 0 0 0 0 0 0 0 0 0 0 0 0 2 12 5 18 0 0 0 0
0 1 3 3 9 13 17 20 11 4 0 0 0 0 0 0 0 0 0 0 0 0 0 0 6 28 14 3 0 0 0 0
1 11 7 8 9 11 12 13 4 0 0 0 0 0 0 0 0 0 0 0 0 0 0 21 26 27 4 0 1 0 0 0
5 5 8 9 12 16 17 12 0 0 0 0 0 0 0 0 0 0 0 0 3 21 28 6 1 16 4 2 0 0 0 0
1 5 9 15 9 15 5 0 0 0 0 0 0 0 0 0 0 0 0 0 10 6 2 0 0 0 0 0 0 0 0 0
0 0 12 15 12 15 0 0 0 0 0 0 0 0 0 0 0 0 0 1 2 8 0 0 0 0 0 0 0 0 0 0
0 10 16 16 20 2 0 0 0 0 0 0 0 0 0 0 0 0 0 3 0 0 0 0 0 0 0 0 0 0 0 0
3 20 14 16 4 0 0 0 0 0 0 0 0 0 0 0 0 0 0 0 2 0 0 0 0 0 0 0 0 0 0 0

GFSFLT1_con_mucape_030.txt.gz
CAPE
269 271 241 494 690 691 701 607 200 78 0 2 1 44 64 31 26 9 4 0 0 0 0 0 0 0 0 0 0 0 0 0
322 366 566 684 739 758 832 569 132 45 5 30 35 0 0 0 0 0 0 0 0 0 0 0 0 0 0 0 0 0 0 1
413 501 638 686 751 768 900 563 591 381 135 18 0 0 0 0 0 0 0 0 0 0 0 0 0 0 0 0 0 0 0 1
622 636 660 751 790 813 772 841 489 102 22 1 0 0 0 0 0 0 0 0 0 0 0 0 0 0 0 0 0 0 0 1
727 849 915 910 881 854 762 218 1 0 0 0 15 6 11 0 0 0 0 0 0 0 0 0 0 0 0 0 0 11 16 0
464 298 148 21 4 153 362 36 0 0 0 0 0 0 0 0 0 0 0 0 0 0 0 0 0 6 19 9 13 41 32 27
7 3 0 0 0 0 0 0 0 0 0 0 0 0 0 0 0 0 0 0 1 5 7 15 28 38 44 40 55 68 70 66
1 0 0 0 0 0 0 0 0 0 0 0 1 0 1 0 0 0 0 0 4 7 24 53 72 77 72 61 84 70 72 59
0 0 0 0 0 0 0 0 0 0 0 0 0 0 0 0 0 0 0 0 0 1 19 29 33 65 74 80 85 67 76 61
0 0 0 0 0 0 0 0 0 0 6 4 16 0 1 0 0 0 0 0 0 0 4 12 22 38 58 81 70 78 59 41
0 0 0 0 0 0 0 0 0 5 3 2 3 0 0 0 0 0 0 0 0 0 0 0 6 30 60 60 68 59 47 58
0 0 0 0 0 0 5 5 5 4 0 5 3 0 0 0 0 0 0 0 0 0 0 1 10 35 66 69 76 54 31 22
0 0 0 0 3 7 5 2 6 7 9 3 0 0 0 0 0 0 0 0 0 1 9 19 26 35 53 51 40 13 13 18
0 0 2 5 10 10 7 5 0 0 0 0 0 0 0 0 0 0 0 0 0 7 17 22 16 30 45 25 1 0 0 0
0 0 4 10 18 7 6 5 0 0 0 0 0 0 0 0 0 0 0 0 4 12 17 12 12 17 7 0 0 0 18 32
0 0 3 11 14 9 9 6 0 1 0 0 0 0 0 0 0 0 0 1 7 18 17 19 8 13 0 0 0 23 25 10
0 0 0 7 8 10 20 1 0 0 0 0 0 0 0 0 0 0 0 3 13 21 22 15 16 0 0 0 0 0 3 0
0 0 0 3 7 18 14 5 0 0 0 0 0 0 0 0 0 0 0 5 16 20 25 32 30 0 0 0 0 0 0 0
0 0 1 11 17 13 10 0 0 0 0 0 0 0 0 0 0 0 3 4 8 26 28 28 3 0 0 0 0 0 0 0

GFSFLT1_con_mucape_033.txt.gz
CAPE
329 227 79 173 651 912 784 746 407 149 35 21 0 0 0 8 15 9 0 0 0 0 0 0 0 0 0 0 0 0 0 0
582 439 321 576 987 1010 953 955 537 237 240 59 27 33 4 0 0 0 0 0 0 0 0 0 0 0 0 0 0 0 0 0
675 706 824 877 1084 1087 892 771 597 442 464 182 50 7 3 1 0 0 0 0 0 0 0 0 0 0 0 0 0 0 0 1
837 826 953 1002 811 831 857 721 633 639 312 68 51 63 28 0 0 0 0 0 0 0 0 0 0 0 0 0 4 3 0 5
995 1070 893 868 990 916 1047 931 721 255 43 33 57 52 18 28 9 1 0 0 0 0 0 0 0 0 2 8 10 17 25 0
947 1015 1123 1211 1103 950 816 449 60 4 23 37 66 32 41 18 2 0 0 0 2 0 0 7 9 13 19 28 37 39 38 29
924 761 544 372 487 617 439 4 3 0 0 4 10 7 0 0 4 0 0 0 0 0 4 9 15 20 34 47 49 27 56 58
207 16 0 0 17 100 60 1 0 0 0 0 0 0 0 2 11 0 0 0 0 0 0 1 3 5 10 30 47 56 88 69
0 0 0 0 0 0 0 0 1 0 0 0 0 0 2 6 0 0 0 0 0 0 0 0 1 7 14 42 78 108 101 67
0 0 0 0 0 0 0 2 4 0 0 0 0 0 2 0 0 0 0 0 0 0 0 0 0 0 3 25 76 93 100 99
0 0 0 0 0 2 3 2 0 0 0 0 0 2 0 0 0 0 0 0 0 0 0 0 0 0 6 22 40 68 62 102
1 0 0 0 0 0 0 0 0 1 1 1 0 1 0 0 0 0 0 0 0 0 0 0 0 6 16 16 42 62 49 43
6 3 0 1 0 0 0 3 8 7 5 3 0 0 0 0 0 0 0 0 0 0 0 3 10 13 11 30 39 15 29 26
11 6 2 1 0 2 5 11 11 11 11 2 0 0 0 0 0 0 0 0 0 0 5 11 14 13 18 21 16 12 27 25
6 5 3 0 0 2 11 11 11 15 17 12 0 0 0 0 0 0 0 0 0 3 9 15 17 16 12 11 15 23 30 33
0 0 2 0 0 9 24 8 11 17 16 0 0 0 0 0 0 0 0 0 1 5 13 16 18 18 10 3 16 28 16 14
0 0 0 0 0 0 0 4 17 24 18 0 0 0 0 0 0 0 0 0 2 7 22 22 21 16 0 0 0 0 1 4
0 0 0 0 0 0 0 12 23 29 4 0 0 0 0 0 0 0 0 1 6 14 28 24 27 29 0 0 0 0 0 2
0 0 0 0 0 0 3 9 22 8 1 0 0 0 0 0 0 0 2 6 12 11 24 26 32 11 0 0 0 0 0 0

GFSFLT1_con_mucape_036.txt.gz
CAPE
0 6 104 313 434 499 569 567 413 136 20 13 2 0 0 0 0 6 8 1 0 0 0 0 0 0 0 0 0 0 0 0
243 244 219 319 872 747 709 527 293 60 99 96 30 3 0 0 0 0 0 0 0 0 0 0 0 0 0 0 0 0 0 0
544 464 385 649 1013 904 691 530 283 218 312 216 82 2 0 0 0 0 0 0 0 0 0 0 0 0 0 0 0 0 0 0
656 607 796 1006 1139 845 702 762 670 346 354 84 6 0 0 0 0 0 0 0 0 0 0 0 0 0 0 0 0 0 0 0
739 769 788 996 1076 837 796 559 625 663 315 11 0 0 0 0 0 0 0 0 0 0 0 0 0 0 0 0 0 0 0 0
775 900 1030 838 700 691 669 719 693 317 56 2 28 84 25 3 0 3 7 0 0 0 0 0 0 0 0 0 11 24 15 7
901 1004 901 875 840 886 943 597 164 48 0 12 39 27 0 0 0 0 0 0 0 0 0 0 0 0 0 0 0 7 2 7
823 830 876 897 854 885 419 163 1 0 0 0 0 0 0 0 0 0 0 0 0 0 0 0 0 0 0 0 0 22 30 21
774 547 341 284 353 435 209 0 0 0 0 0 0 0 0 0 0 5 0 0 0 0 0 0 0 0 0 0 0 13 37 30
182 22 0 0 8 37 0 0 0 0 0 0 0 0 0 0 0 2 0 0 0 0 0 0 0 0 0 0 0 8 36 10
13 0 0 0 0 0 0 0 0 0 0 0 0 1 4 1 1 0 0 0 0 0 0 0 0 0 0 1 6 2 6 9
4 0 0 0 0 0 0 0 0 0 0 0 3 13 6 10 9 2 0 0 0 0 0 0 0 0 1 0 0 0 1 0
2 0 0 0 2 1 0 0 0 0 5 1 9 11 12 5 12 0 0 0 0 0 0 0 0 0 0 0 0 6 1 0
15 4 2 3 0 0 0 0 0 3 2 27 18 19 24 2 5 0 0 0 0 0 0 0 0 1 0 2 2 5 7 1
57 17 17 8 2 0 0 0 3 14 24 32 14 23 0 2 0 0 0 0 0 0 0 0 6 0 0 1 3 7 5 1
33 122 66 56 40 12 0 0 0 0 24 35 18 22 0 0 0 0 0 0 0 0 0 5 1 0 1 0 1 0 0 0
32 63 120 102 69 6 0 0 0 0 8 4 29 1 5 0 0 0 0 0 0 1 0 3 3 0 0 0 0 0 0 0
7 21 51 84 86 50 3 2 0 0 13 21 22 14 0 0 0 0 0 0 0 0 2 7 8 5 0 2 0 0 0 0
0 7 52 49 38 32 6 0 0 6 9 14 0 0 0 0 0 0 0 0 2 0 0 4 9 9 0 1 3 0 0 0

GFSFLT1_con_mucape_039.txt.gz
CAPE
67 41 51 93 118 125 430 505 471 315 166 35 10 0 0 0 0 0 0 6 8 1 0 0 0 0 0 0 0 0 0 0
0 14 84 145 181 259 475 451 332 117 59 32 60 9 1 0 0 0 0 0 0 0 0 0 0 0 0 0 0 0 0 0
10 1 143 261 335 412 477 516 275 143 44 52 76 7 0 0 0 0 0 0 0 0 0 0 0 0 0 0 0 0 0 0
187 149 360 418 456 517 520 558 401 130 48 70 27 0 0 0 0 0 0 0 0 0 0 0 0 0 0 0 0 0 0 0
371 321 468 713 656 715 675 558 461 162 195 203 3 0 0 0 0 0 0 0 0 0 0 0 0 0 0 0 0 0 0 0
554 494 587 862 812 814 638 569 410 207 329 35 0 0 0 0 0 0 0 0 0 0 0 0 0 0 0 0 0 0 0 0
606 622 661 859 841 821 745 572 336 456 485 4 0 0 0 0 0 0 2 2 0 0 0 0 0 0 0 0 0 0 0 0
658 710 826 789 671 651 492 460 464 427 75 70 1 0 0 1 5 5 0 3 4 2 1 0 0 0 0 0 0 0 0 0
812 884 867 671 529 419 598 637 469 144 137 87 4 7 8 8 8 2 4 6 16 2 0 0 0 0 0 0 0 0 0 0
737 752 763 839 792 701 630 185 73 60 59 4 0 7 14 21 8 4 8 10 13 16 0 0 0 0 0 0 0 0 0 0
686 703 639 696 539 482 371 256 104 2 0 0 0 4 7 6 12 15 5 16 0 0 0 0 0 0 0 0 0 0 0 0
488 371 219 98 35 55 89 72 0 1 0 0 1 7 17 22 6 22 31 0 2 0 0 0 0 0 0 0 0 0 0 0
278 168 2 0 0 0 0 0 0 0 0 0 0 19 24 13 30 32 6 6 0 0 0 0 0 0 0 0 0 0 0 0
184 58 0 0 0 0 0 11 15 4 0 5 23 34 12 31 24 2 11 0 0 0 0 0 0 0 0 0 0 0 0 0
110 31 4 15 33 49 30 46 69 45 33 34 33 12 17 14 7 3 0 1 1 3 0 0 0 0 0 0 0 0 0 0
125 77 56 46 58 68 56 58 79 56 18 6 7 13 19 20 0 0 0 0 6 0 0 0 0 0 0 0 0 0 0 0
21 63 60 94 62 67 75 64 80 49 33 10 12 18 19 4 0 0 0 0 1 0 0 0 0 0 5 3 6 0 1 0
0 8 69 90 97 95 59 41 65 61 58 37 21 11 11 6 0 0 0 0 0 0 0 0 0 0 5 12 7 4 3 0
0 0 5 50 73 71 55 49 55 48 42 37 23 8 3 0 0 0 0 0 0 2 2 1 1 0 4 9 7 2 0 0

GFSFLT1_con_mucape_042.txt.gz
CAPE
495 394 386 342 207 54 220 357 341 383 381 280 110 31 0 0 0 0 0 0 0 0 0 0 0 0 0 0 0 0 0 0
475 381 344 227 131 102 237 392 392 357 299 204 84 40 3 0 0 0 0 0 0 0 0 0 0 0 0 0 0 0 0 0
440 372 240 157 195 229 219 347 425 446 309 168 35 50 7 1 0 2 8 0 0 0 0 0 0 0 0 0 0 0 0 0
189 162 120 180 244 295 291 423 482 485 217 78 56 73 28 16 2 0 0 0 0 0 0 0 0 0 0 0 0 0 0 0
57 67 105 151 265 297 359 457 465 270 175 70 46 81 32 11 0 0 0 0 0 0 0 0 0 1 0 0 0 0 0 0
113 90 145 181 295 349 423 486 467 387 290 130 58 63 2 0 0 0 0 0 0 0 0 0 0 2 1 0 0 0 0 0
233 217 325 281 330 411 607 602 649 586 250 203 196 81 1 0 0 0 0 3 6 0 0 0 0 5 3 0 0 0 0 0
389 331 566 628 640 548 550 627 540 406 173 340 231 31 17 1 18 14 9 8 1 20 0 1 0 1 0 0 0 0 0 0
460 504 724 860 904 794 731 673 549 423 350 576 150 20 16 56 35 28 29 34 23 8 0 0 0 3 0 0 0 0 0 0
561 669 732 804 860 786 655 558 562 341 531 139 32 42 95 73 52 63 54 18 34 0 10 16 0 0 0 0 0 0 0 0
773 811 868 867 833 529 403 473 446 511 228 122 131 87 60 54 62 58 46 34 8 3 12 0 2 0 0 0 0 0 0 0
820 915 925 787 703 628 654 570 462 230 104 120 71 52 35 36 43 43 43 4 9 21 1 1 0 0 0 0 0 0 0 0
737 775 800 852 831 658 568 424 266 100 72 80 54 34 27 62 51 41 25 12 6 11 0 0 0 0 0 0 0 0 0 0
615 578 567 620 622 437 301 222 128 64 43 59 84 78 72 73 63 19 22 22 13 0 0 0 0 0 0 0 0 0 0 0
514 438 376 283 162 78 49 29 32 36 41 64 53 52 44 48 36 23 11 8 1 0 0 0 0 0 0 0 0 1 7 0
426 357 250 178 74 58 53 42 39 47 60 82 75 53 23 5 4 3 8 3 4 0 0 0 0 0 0 0 0 1 7 5
0 25 89 85 49 40 34 37 60 59 84 89 81 42 49 43 12 6 1 0 0 0 0 0 0 0 0 0 2 7 20 13
0 0 2 21 65 62 70 71 88 96 101 55 43 41 31 45 12 7 5 0 0 0 0 0 0 0 0 3 1 13 18 16
0 0 0 55 96 124 99 78 76 82 52 34 27 27 4 4 7 0 0 0 0 0 0 0 0 0 0 3 3 11 16 18

GFSFLT1_con_mucape_045.txt.gz
CAPE
518 261 210 131 203 315 332 316 15 30 145 263 427 456 429 262 2 0 0 5 2 0 0 1 0 0 0 0 0 0 0 0
567 435 302 236 369 396 409 370 61 121 293 338 406 385 272 54 0 0 0 6 0 0 0 0 0 0 0 0 0 0 0 0
561 473 396 408 490 436 315 165 200 355 390 374 381 275 102 29 9 0 0 0 0 0 0 0 0 0 0 0 0 0 0 0
682 512 516 500 501 428 259 176 295 364 422 416 363 230 71 53 30 9 3 0 0 0 0 0 0 0 0 0 0 0 0 0
745 678 497 463 435 321 153 118 270 318 399 383 319 199 41 48 65 50 33 18 0 0 0 0 0 0 0 0 0 0 0 0
743 647 528 443 442 165 164 192 186 327 396 441 321 113 57 58 69 55 19 0 0 0 0 0 0 3 18 14 8 0 0 0
360 407 416 347 319 107 106 179 257 250 487 439 221 147 61 65 17 4 0 0 0 0 1 10 14 1 1 5 2 0 0 0
189 248 210 130 74 114 113 190 291 401 466 452 268 140 136 89 36 0 0 0 1 4 20 28 24 21 5 3 2 0 1 0
185 177 198 158 202 146 183 255 272 461 601 665 338 139 324 152 62 35 32 47 19 14 34 26 1 2 6 14 0 0 0 0
145 230 302 323 311 201 244 404 402 528 652 584 265 188 291 183 51 49 56 35 25 4 7 1 0 7 0 0 0 0 0 0
237 315 379 486 462 488 604 601 547 593 585 438 254 328 160 145 64 79 45 41 4 5 9 1 12 8 3 0 0 0 0 0
520 516 536 630 735 779 834 793 706 631 494 349 343 153 98 64 39 56 66 55 11 21 5 10 15 20 1 0 0 0 0 0
669 696 730 763 811 881 904 748 575 574 415 353 157 86 92 70 56 76 72 80 59 4 10 5 4 1 0 0 0 0 0 0
758 815 845 904 951 921 666 546 498 500 371 98 76 86 69 70 53 53 25 33 23 5 4 6 2 0 0 0 0 0 0 0
668 714 814 902 909 789 669 557 476 343 103 65 49 48 54 63 57 47 31 44 25 15 15 12 0 0 0 0 0 0 0 0
571 716 758 746 754 687 514 284 140 74 62 51 55 68 68 72 55 11 0 2 3 10 4 0 0 0 0 0 0 0 0 0
8 58 301 398 270 183 137 76 62 53 44 74 68 76 60 40 25 26 10 0 2 0 0 0 0 0 0 0 0 0 1 1
0 0 1 6 24 53 54 56 69 68 79 80 45 42 41 41 38 18 7 0 0 0 0 0 0 0 0 0 0 0 1 1
0 0 0 1 3 24 44 64 76 75 78 64 50 41 33 23 14 5 0 0 0 0 0 0 0 0 0 0 0 0 0 5

GFSFLT1_con_mucape_048.txt.gz
CAPE
270 192 113 5 3 52 155 212 312 77 0 0 5 108 322 297 299 308 173 121 69 45 32 17 16 21 0 0 0 0 0 0
488 303 206 61 11 91 137 218 307 45 0 10 100 288 386 343 237 91 0 0 1 3 6 9 25 0 0 0 0 0 0 0
589 598 401 228 64 88 184 300 318 109 29 46 152 276 350 314 232 82 12 1 1 7 15 18 0 0 0 0 0 0 0 0
705 685 640 442 240 167 256 416 410 242 45 56 130 236 282 165 78 53 39 38 16 6 4 0 0 0 0 0 0 0 0 0
719 636 609 538 424 319 411 501 493 389 73 67 234 296 276 126 59 35 15 47 14 0 0 0 0 0 0 0 1 7 3 0
625 673 629 554 507 439 546 571 477 199 95 195 292 320 365 264 57 27 44 43 26 10 0 0 0 0 0 3 4 0 0 0
650 711 719 679 586 550 570 564 467 231 119 279 325 386 199 137 43 35 51 24 21 3 0 0 0 1 19 7 30 0 0 1
562 592 592 760 698 576 537 572 474 143 135 179 293 358 268 165 75 52 27 1 0 0 0 6 7 9 13 6 0 7 0 1
564 455 452 645 680 561 515 532 393 103 123 248 211 374 381 196 82 149 27 12 5 10 15 25 10 0 1 5 13 11 19 4
190 503 399 423 440 479 439 351 278 101 249 308 287 378 384 295 129 322 50 28 36 18 8 7 11 20 1 19 8 9 3 0
6 105 155 257 256 345 396 488 405 341 398 375 383 457 490 285 173 185 73 62 56 48 27 13 16 1 8 3 6 2 0 0
215 319 303 272 294 358 415 412 603 588 548 424 454 578 509 174 180 162 59 55 60 58 48 42 14 2 1 8 0 0 0 0
271 220 187 289 364 349 304 465 738 696 666 587 506 467 349 301 107 75 78 71 45 20 0 0 2 10 0 0 0 0 0 0
478 482 428 403 361 393 554 729 817 763 675 587 383 316 175 44 68 72 64 39 36 28 8 3 12 2 0 0 0 0 0 0
578 596 651 666 661 658 619 655 660 485 317 253 166 65 49 41 56 30 30 16 21 0 4 0 0 0 0 0 0 0 0 0
317 495 590 643 660 715 703 652 570 350 152 93 60 51 46 53 39 32 13 11 4 8 1 0 0 0 0 0 0 0 0 0
49 98 166 213 208 221 220 272 162 66 83 80 76 49 76 64 26 41 14 42 32 23 0 0 0 0 0 0 0 0 0 0
0 0 0 0 0 0 8 7 0 26 47 66 57 90 55 45 37 16 25 11 32 0 0 0 0 0 0 0 0 0 0 0
0 0 0 0 0 0 0 0 0 19 45 47 46 31 34 50 47 42 24 6 0 0 0 0 0 0 0 0 0 0 0 0

GFSFLT1_con_mucape_051.txt.gz
CAPE
179 138 70 16 13 43 126 295 282 141 67 6 12 29 69 43 96 122 214 110 86 82 64 14 10 31 29 15 0 0 0 0
243 163 136 35 27 69 112 280 267 286 129 27 30 33 47 80 147 125 146 124 81 51 50 41 17 19 9 0 0 0 0 0
369 302 188 116 72 97 138 227 273 283 231 44 34 35 15 73 169 187 100 28 10 1 2 2 4 11 4 0 0 0 0 0
717 552 390 265 142 118 122 209 273 268 249 49 44 23 60 157 235 132 41 45 9 12 14 2 4 2 0 0 0 0 0 0
877 831 703 539 389 162 130 185 203 233 329 50 49 48 80 176 162 110 26 49 23 39 55 1 0 0 0 0 0 0 3 0
831 840 870 800 719 565 266 199 162 300 432 328 80 51 83 113 193 107 36 38 37 95 53 0 0 0 0 0 0 4 0 2
731 901 770 675 683 673 541 355 308 389 504 519 444 149 150 153 128 155 94 49 39 60 27 3 3 0 0 0 0 0 18 6
408 634 723 679 691 685 631 557 483 520 567 497 378 124 87 281 226 131 116 51 60 34 12 11 4 6 0 11 3 0 1 1
505 454 621 594 725 798 795 725 614 645 652 586 400 102 192 295 281 215 127 42 57 24 20 8 1 17 4 19 20 2 0 0
98 495 598 562 635 682 743 842 720 648 616 607 458 213 204 194 155 180 106 65 45 27 18 32 24 39 40 23 10 0 0 0
5 0 77 310 533 561 543 711 665 622 502 458 453 299 206 176 157 205 151 90 77 21 4 63 43 28 31 31 16 2 2 0
22 66 136 234 266 263 305 371 401 409 344 425 291 231 196 190 207 234 217 70 63 52 44 55 33 22 0 3 3 1 0 0
126 123 171 241 254 294 313 317 319 305 220 198 310 255 254 229 275 140 69 96 57 71 67 22 19 22 20 0 0 0 0 0
234 184 188 262 324 308 290 265 335 379 393 419 363 233 205 93 75 65 56 56 53 43 29 32 11 0 0 0 0 0 0 0
396 460 485 471 473 479 434 464 559 673 659 566 353 208 66 64 39 43 35 40 21 6 16 8 0 1 0 0 0 0 0 0
177 355 489 622 695 697 690 672 645 614 493 282 120 62 37 16 29 11 44 29 13 2 0 1 0 0 0 0 0 0 0 0
16 131 244 295 273 180 141 132 175 209 179 143 67 26 24 4 7 31 11 10 2 3 4 0 0 0 0 0 0 0 0 0
0 0 0 0 0 0 0 0 0 0 0 14 9 5 10 16 16 24 3 11 29 12 0 0 0 0 0 0 0 0 0 0
0 0 0 0 0 0 0 0 0 0 0 0 0 9 17 27 10 0 4 5 3 0 0 0 0 0 0 0 0 0 0 0

GFSFLT1_con_mucape_057.txt.gz
CAPE
232 137 75 59 0 0 6 17 64 204 200 223 99 102 223 106 64 341 536 591 692 298 186 216 80 0 0 0 0 4 6 1
374 158 99 83 52 42 23 41 231 70 102 107 89 13 45 58 162 433 700 529 609 755 537 423 52 0 3 0 0 4 18 1
492 328 235 191 112 26 3 4 19 76 46 38 58 75 8 119 245 506 583 490 484 525 624 433 62 1 2 0 6 4 23 0
516 368 332 283 224 134 48 158 182 207 249 191 133 77 68 70 196 393 475 255 91 71 85 159 44 22 0 4 4 6 29 1
732 573 540 377 283 287 270 280 313 384 492 406 334 135 63 64 228 306 392 83 11 22 35 20 171 86 3 20 50 43 18 0
905 712 658 611 482 546 514 515 593 630 688 572 517 366 171 154 266 394 361 116 21 75 30 35 99 12 38 73 48 22 19 0
859 1012 858 759 755 908 955 572 542 553 646 856 968 870 502 267 324 751 457 304 106 61 45 42 44 36 21 30 33 28 9 0
646 868 1180 1107 1046 1071 1195 777 728 719 963 960 1035 1083 1126 867 708 1000 581 417 199 37 21 51 31 59 4 23 27 32 0 2
972 836 993 1294 1635 1781 1376 1277 1208 970 991 1149 1218 1294 1329 1406 1025 1060 961 665 241 30 56 56 0 0 4 22 16 10 17 2
648 988 1004 1246 1550 2127 2365 1876 1640 1441 1382 1311 1220 1541 1813 1490 1370 1128 795 606 105 49 54 112 35 3 21 0 0 19 18 8
395 685 1091 1249 1523 2098 2093 2137 1881 1739 1530 1512 1500 1675 1276 1085 901 586 415 188 63 39 24 52 31 7 2 0 8 5 13 5
359 477 696 1124 1416 1777 2068 2053 1993 1813 1650 1709 1445 985 899 810 563 530 522 122 52 26 57 68 17 4 1 5 0 20 16 2
588 540 498 748 1168 1514 1676 1789 1841 1807 1773 1719 1391 1007 777 764 630 578 542 272 173 26 44 23 0 61 9 6 1 0 15 0
756 973 940 863 950 1083 1244 1358 1364 1431 1490 1215 932 856 947 957 561 486 240 97 66 40 44 55 20 9 4 9 0 0 1 2
304 528 846 1041 1150 1192 1301 1239 1233 1156 991 894 777 768 456 386 317 200 85 43 72 53 38 42 11 24 30 3 12 8 2 0
476 587 863 1180 1349 1429 1050 843 785 523 428 471 474 406 325 339 212 127 39 40 56 23 10 9 8 13 0 7 4 0 0 0
593 974 1307 1359 1084 890 357 190 411 488 523 466 376 331 242 254 226 154 82 15 1 0 0 0 8 4 7 1 0 0 0 0
341 811 941 664 466 463 460 438 374 219 72 35 31 16 3 0 0 0 0 0 0 0 0 3 6 0 0 0 0 0 0 0
147 218 105 214 390 381 126 33 19 4 0 0 0 0 0 0 0 0 0 0 0 0 0 0 0 0 0 0 0 0 0 0

GFSFLT1_con_mucape_063.txt.gz
CAPE
11 0 0 0 0 0 0 3 4 0 1 4 8 5 28 34 24 31 55 51 144 81 61 90 19 5 1 7 0 6 2 3
44 0 0 0 0 0 0 0 0 2 0 0 0 0 8 2 17 0 75 126 96 88 119 88 43 11 7 12 0 16 25 25
94 20 0 0 0 0 0 0 0 0 0 0 0 0 0 1 9 5 117 184 208 114 84 109 115 52 47 42 31 5 20 36
145 18 0 0 0 0 0 0 0 0 0 0 0 0 9 8 0 0 34 143 161 274 253 161 83 98 53 42 29 1 0 22
327 0 0 0 0 0 0 0 0 0 0 0 0 0 0 0 0 0 64 269 315 326 299 268 170 152 126 78 19 26 14 6
423 64 0 0 0 0 0 0 0 0 0 0 0 0 0 0 0 0 17 155 258 291 283 261 239 189 102 31 40 31 35 22
472 264 0 0 0 0 0 0 0 0 0 2 9 0 1 4 3 0 15 143 215 248 269 210 181 92 19 23 41 50 41 29
535 381 188 0 0 0 0 0 0 0 0 0 0 21 14 8 7 15 76 178 263 296 190 92 44 23 17 50 69 51 42 42
530 446 307 162 33 2 5 0 0 0 0 2 0 39 160 175 68 47 48 134 178 204 171 119 57 20 26 27 36 30 53 35
542 507 424 332 143 58 12 1 0 0 7 40 89 78 77 264 231 170 115 166 179 263 233 124 151 91 26 23 22 27 12 0
571 552 543 475 359 258 160 130 94 26 51 113 150 395 372 324 410 355 241 133 242 306 293 348 466 62 159 7 29 21 0 0
191 521 599 519 408 406 363 354 320 255 189 138 206 246 422 344 338 189 144 41 198 344 422 486 367 90 36 18 19 6 6 18
173 161 409 577 552 555 507 522 554 390 404 285 343 321 257 289 22 259 202 268 193 247 210 265 73 8 41 16 18 25 17 26
263 262 214 478 687 625 610 560 1017 622 459 507 551 573 257 340 210 313 223 383 186 136 169 94 39 81 57 17 42 19 6 33
324 401 381 418 798 1104 1303 1059 336 326 128 789 756 562 412 484 373 174 177 224 152 138 51 61 26 51 11 13 0 8 10 24
396 546 564 743 746 880 1075 1036 848 619 875 797 715 693 612 399 182 78 155 70 47 28 23 5 11 9 11 8 8 12 10 5
302 567 756 860 773 791 838 894 859 805 747 718 680 420 395 191 87 83 30 28 40 0 0 6 10 3 0 0 0 0 4 6
81 567 848 898 899 854 820 825 806 739 670 456 322 197 116 71 79 62 20 0 0 0 0 0 0 0 0 0 0 0 0 0
404 451 759 840 924 938 895 822 758 575 446 394 284 118 68 43 2 0 0 0 0 0 0 0 0 0 0 0 0 0 0 0

GFSFLT1_con_mucape_066.txt.gz
CAPE
2 0 0 0 0 3 15 13 15 18 2 3 3 15 3 3 12 74 64 76 111 55 82 75 38 16 1 0 0 0 0 0
10 0 0 0 0 5 0 9 9 1 0 0 0 3 2 0 3 23 35 8 104 93 56 70 29 3 2 0 0 0 0 0
49 0 0 0 0 0 0 0 0 0 0 0 4 3 0 0 0 0 0 7 24 108 76 42 36 20 23 7 2 4 1 1
111 1 0 0 0 0 0 0 0 0 0 0 0 0 0 0 0 0 0 7 43 50 69 48 49 34 28 15 26 25 19 28
191 33 0 0 0 0 0 0 0 0 0 0 0 0 0 0 0 0 0 10 92 95 64 53 11 45 57 43 38 46 29 26
271 240 0 0 0 0 0 0 0 0 0 0 0 0 0 0 0 0 0 0 44 75 118 157 132 111 22 41 48 65 43 28
428 280 82 0 0 0 0 0 0 0 0 0 0 0 0 0 0 0 0 0 26 78 99 141 200 192 148 94 93 78 27 7
481 413 291 0 0 0 0 0 0 0 0 0 0 0 0 0 0 0 0 3 39 111 204 227 249 241 168 108 64 26 11 27
434 407 423 125 0 0 0 0 0 0 0 0 0 0 4 27 44 42 33 36 20 60 74 98 133 183 124 78 71 15 42 77
311 330 418 355 116 6 0 0 0 0 0 0 0 0 21 40 41 71 91 74 44 32 62 85 109 87 52 43 26 19 40 32
261 285 435 485 257 148 85 2 0 0 0 0 0 7 38 42 113 60 94 84 84 76 102 136 163 138 91 46 13 4 23 28
172 426 515 505 411 254 241 172 32 13 1 0 7 40 78 76 81 126 82 29 134 60 19 145 162 114 132 122 132 9 32 17
256 420 492 493 492 426 379 325 200 123 56 45 61 65 189 268 294 151 79 22 50 90 65 115 319 243 128 163 1 34 25 14
25 123 362 489 547 547 532 473 348 243 241 186 122 99 256 209 246 190 44 22 57 129 135 238 222 123 308 18 41 41 25 10
79 67 133 301 456 560 576 604 518 403 326 266 427 276 70 10 56 129 302 131 155 231 203 265 114 134 77 8 26 29 10 16
110 117 397 591 603 660 649 658 638 573 464 75 175 222 158 255 155 206 251 221 202 225 175 219 96 54 28 79 16 10 25 20
94 150 378 522 691 853 874 970 797 678 593 166 292 257 350 236 403 531 215 110 126 110 143 91 58 6 16 12 11 13 6 6
96 195 382 367 453 714 992 1113 1027 815 552 294 273 466 505 285 266 205 140 123 90 58 21 5 5 5 2 1 1 0 0 0
36 223 376 388 343 425 590 721 763 660 534 333 269 347 295 195 126 130 64 62 27 0 0 1 0 0 0 0 0 0 0 0

GFSFLT1_con_mucape_069.txt.gz
CAPE
13 0 0 0 3 2 0 6 10 21 24 14 13 7 76 75 62 42 23 8 4 2 10 22 16 13 2 7 11 0 0 0
20 0 0 0 1 1 3 10 17 8 13 15 25 6 5 87 102 101 90 65 55 29 85 99 85 55 48 13 12 8 0 0
18 8 0 0 0 3 0 0 1 13 15 9 10 2 14 23 32 76 76 62 83 137 83 105 73 47 26 45 10 0 1 2
27 27 0 0 0 0 0 0 6 2 0 18 18 30 5 0 0 4 37 53 58 44 116 71 59 52 42 22 15 18 27 20
39 23 0 0 0 0 0 0 0 0 0 0 0 0 0 1 2 0 3 8 2 44 50 89 89 41 58 54 41 30 35 46
64 27 37 0 0 0 0 0 0 0 0 0 0 0 0 0 0 0 0 0 0 13 54 39 49 39 61 49 53 50 46 44
80 79 104 5 0 0 0 0 0 0 0 0 0 0 0 0 0 0 0 0 0 0 12 58 68 77 87 62 56 58 45 45
155 181 197 129 0 0 0 0 0 0 0 0 0 0 0 0 0 0 0 0 0 0 4 22 57 84 96 140 148 171 115 76
196 215 309 249 90 0 0 0 0 0 0 0 0 0 0 0 0 0 0 0 0 0 21 26 16 35 76 137 160 111 113 97
216 262 322 390 282 45 0 0 0 0 0 0 0 0 0 0 0 0 0 0 1 19 7 25 43 77 59 50 74 83 100 76
196 315 317 433 367 301 75 17 0 0 0 0 0 0 0 0 0 6 3 15 34 50 92 36 37 36 47 72 103 24 8 31
223 421 334 367 330 372 410 68 50 4 0 0 0 0 0 0 0 0 11 22 92 48 50 11 40 87 86 117 105 35 46 4
185 356 358 358 224 239 406 353 153 21 0 0 0 0 0 0 0 2 28 93 83 21 99 0 33 48 60 166 152 81 63 68
31 118 207 237 216 311 431 471 509 329 38 8 0 8 0 1 1 36 93 94 106 8 1 34 188 88 84 207 227 97 55 21
39 107 162 216 299 376 425 465 489 523 396 134 34 44 20 15 36 60 114 235 184 51 90 61 67 81 141 275 147 69 14 25
29 56 113 188 318 358 388 397 465 492 512 393 195 137 147 181 175 143 109 216 201 206 227 105 91 244 181 259 75 17 15 21
1 41 79 134 179 211 298 374 427 460 487 442 340 296 250 372 362 301 99 95 128 116 163 194 272 213 148 98 37 51 25 40
6 3 77 201 235 251 278 292 358 446 577 537 475 356 281 316 332 275 203 177 225 161 254 153 126 88 137 40 9 7 9 12
4 0 59 199 248 268 291 390 372 412 527 625 495 424 394 171 113 238 231 230 214 187 101 78 108 66 29 2 6 6 7 12

GFSFLT1_con_mucape_072.txt.gz
CAPE
18 30 0 0 0 1 0 4 11 12 6 7 15 2 71 42 2 2 2 1 6 13 13 8 3 1 16 34 19 10 1 0
20 27 0 1 0 0 0 11 2 6 14 9 2 4 51 42 15 5 1 1 0 0 0 2 8 29 46 33 29 29 9 0
17 28 1 4 2 0 0 0 1 0 11 17 25 23 23 5 26 19 29 26 10 6 15 59 69 102 81 56 22 10 12 12
7 21 12 2 0 0 0 0 5 3 16 25 12 8 34 0 51 52 46 66 66 72 52 92 136 139 94 54 24 15 26 19
0 12 0 0 0 0 0 0 0 1 1 2 4 11 0 2 3 15 33 59 57 90 123 126 125 85 59 35 23 28 32 18
0 1 4 4 0 0 0 0 0 0 0 1 5 0 0 0 3 7 4 41 31 36 25 51 52 81 87 74 48 34 29 33
0 0 9 28 0 0 0 0 0 0 0 0 1 0 0 0 0 0 0 0 1 4 0 15 47 81 101 102 103 84 83 49
4 39 41 38 27 0 0 0 0 0 0 0 0 0 0 0 0 0 0 0 0 0 0 0 31 65 96 120 125 130 135 117
0 50 110 123 128 5 0 0 0 0 0 0 0 0 0 0 0 0 0 0 0 0 0 1 19 34 48 64 88 89 104 95
1 53 119 147 180 189 0 0 0 0 0 0 0 0 0 0 0 0 0 0 0 0 0 0 4 8 13 41 39 54 3 26
6 28 125 197 190 288 262 32 0 0 0 0 0 0 0 0 0 0 0 0 0 0 0 0 10 21 16 24 42 44 26 32
9 11 70 177 247 251 389 324 100 0 0 0 0 0 0 0 0 0 0 0 0 0 0 12 19 11 49 31 21 40 87 83
26 44 63 109 178 310 276 395 333 228 14 0 0 0 0 0 0 0 0 0 0 2 30 49 44 21 16 9 10 96 99 85
33 79 123 138 163 254 258 291 295 306 305 42 0 0 0 1 0 0 0 0 0 2 3 35 32 20 0 12 57 86 63 117
0 17 27 91 147 191 181 214 166 245 371 407 54 26 11 11 4 3 13 6 0 30 15 43 64 16 5 30 47 104 76 172
8 7 40 60 73 122 154 147 174 247 307 382 419 244 36 22 14 18 21 21 21 6 8 70 122 40 95 111 54 67 97 196
3 1 10 59 107 127 153 173 175 193 227 285 376 371 303 181 51 55 36 46 79 106 55 257 313 154 125 95 116 294 94 86
29 3 0 31 58 127 201 207 185 189 193 228 330 436 373 243 179 125 108 99 149 179 195 207 128 86 121 164 148 162 113 89
0 18 7 18 50 86 103 194 227 203 220 239 260 344 362 303 219 162 145 201 695 480 131 205 131 222 138 136 63 77 78 60

GFSFLT1_con_mucape_075.txt.gz
CAPE
33 36 0 2 3 3 7 17 10 24 10 11 1 21 46 48 20 7 15 17 24 13 10 28 8 137 6 6 26 49 23 1
66 29 8 0 2 3 0 13 3 0 5 3 1 0 19 26 42 4 17 29 18 32 11 8 8 17 20 9 23 31 35 29
21 8 5 1 3 5 0 0 4 0 0 1 5 3 12 33 43 8 14 7 4 12 8 34 12 54 20 15 42 33 35 25
4 0 0 0 1 2 0 0 0 0 0 2 4 6 5 3 5 0 0 1 3 1 34 77 74 59 59 53 58 50 34 27
0 0 0 0 0 1 0 0 0 0 2 4 4 6 0 0 0 0 0 0 17 39 52 59 125 103 112 92 103 81 38 21
0 0 0 0 0 3 0 0 0 0 0 0 8 26 9 1 0 0 0 0 1 36 68 148 172 144 187 116 99 70 52 22
0 0 0 0 0 2 0 0 0 0 0 0 7 15 7 0 0 3 9 5 5 49 68 126 191 254 253 236 138 87 74 60
0 0 0 0 0 0 0 0 0 0 0 0 0 0 3 1 0 0 5 0 6 27 23 41 77 113 157 173 199 78 69 46
0 0 5 34 6 0 0 0 0 0 0 0 0 0 0 0 0 0 0 0 1 16 19 22 30 50 85 133 151 138 106 43
0 0 8 58 92 44 0 0 0 0 0 0 0 0 0 0 0 0 0 0 0 0 0 3 5 18 47 83 99 102 76 18
0 0 2 54 91 106 102 0 0 0 0 0 0 0 0 0 0 0 0 0 0 0 0 0 0 3 40 71 70 67 59 39
0 0 0 31 81 139 146 210 95 4 0 0 0 0 0 0 0 0 0 0 0 0 0 0 0 0 2 16 53 57 46 61
0 5 2 7 35 89 167 218 271 255 86 0 0 0 0 0 0 0 0 0 0 0 0 0 0 0 7 31 33 48 39 25
0 10 13 24 27 45 91 120 245 277 327 258 42 4 0 0 0 0 0 0 0 0 0 0 0 41 22 38 66 0 2 9
0 11 30 46 65 84 68 78 127 212 256 333 325 263 32 9 0 0 0 0 0 0 0 0 9 11 24 24 50 0 60 96
0 0 0 47 38 39 54 81 105 115 169 192 234 273 330 55 20 2 3 0 14 11 6 0 17 2 18 57 60 20 15 16
0 0 0 0 22 18 35 60 78 78 102 127 172 253 339 355 246 36 12 12 22 33 28 24 17 8 0 45 97 116 120 81
0 0 0 6 6 40 60 73 78 77 55 55 74 141 260 331 321 307 231 90 36 47 47 52 72 57 60 95 149 154 113 78
0 0 0 0 15 23 83 70 110 126 123 104 95 104 168 290 328 296 259 229 195 184 134 118 74 128 186 130 98 72 101 81

GFSFLT1_con_mucape_078.txt.gz
CAPE
228 116 32 0 4 17 44 17 13 0 30 9 2 12 3 5 3 0 0 7 78 43 2 2 0 0 0 0 0 0 0 0
177 121 22 0 7 19 26 1 1 3 5 0 0 4 2 4 0 1 1 0 17 39 56 24 3 2 2 9 9 7 0 3
112 39 4 0 7 14 17 0 0 0 0 3 2 0 2 3 1 10 5 3 7 12 36 54 47 52 10 9 7 9 29 26
169 11 2 5 6 7 1 0 0 0 0 0 3 4 0 0 0 0 8 1 7 6 17 44 22 61 45 55 15 11 62 21
220 43 0 3 3 5 0 0 0 0 0 0 4 3 0 0 2 1 0 7 11 34 15 95 91 86 115 152 93 145 166 129
185 95 12 0 2 4 1 0 0 0 1 0 7 10 9 2 0 0 2 0 29 11 35 45 82 195 177 234 203 165 194 225
168 121 40 0 1 12 11 1 0 0 0 0 3 13 14 3 1 0 1 2 3 8 13 106 126 256 233 329 382 336 296 230
172 158 82 10 0 2 9 8 0 0 4 0 0 1 0 3 1 3 0 0 0 0 1 31 136 219 323 315 407 425 303 280
122 154 117 44 0 0 4 2 7 10 0 21 26 17 2 21 61 47 14 5 5 6 2 22 99 167 258 228 401 361 355 339
127 139 154 102 5 0 1 0 0 7 13 18 21 49 37 39 33 50 27 10 24 30 115 116 196 187 138 147 191 240 257 298
76 152 170 144 49 3 0 0 0 0 6 13 10 15 22 28 41 45 48 53 53 91 87 153 138 73 102 106 136 149 175 401
59 103 146 171 123 41 28 0 0 1 1 5 4 6 14 20 39 31 20 41 24 23 32 43 35 38 60 136 122 131 156 223
189 175 136 157 178 104 39 39 48 35 5 2 36 6 3 18 89 71 76 52 38 6 10 3 16 16 60 115 99 75 76 69
113 343 315 241 196 175 115 88 109 120 89 62 5 10 5 1 1 5 9 9 26 22 26 88 63 76 60 85 84 17 17 13
10 249 427 433 286 222 158 127 78 111 147 171 189 81 35 5 0 0 6 3 1 5 23 34 52 18 4 19 58 81 72 5
1 26 334 477 495 380 251 183 107 82 90 156 191 255 255 124 15 12 5 1 0 0 3 7 36 21 15 6 15 12 4 16
0 0 4 149 422 526 373 271 181 101 82 160 135 183 265 286 283 197 52 17 0 3 6 16 54 0 0 0 4 4 15 28
0 0 0 9 82 346 485 337 224 149 140 136 131 127 157 189 224 256 287 97 40 13 30 9 2 12 7 5 13 23 0 1
0 0 0 3 19 95 341 344 227 181 173 174 137 110 77 90 233 287 308 290 257 202 93 20 19 14 43 54 55 77 76 28

GFSFLT1_con_mucape_081.txt.gz
CAPE
468 443 291 233 114 8 11 44 30 39 8 31 20 1 2 3 4 4 2 12 1 2 32 63 59 15 57 98 102 65 35 3
585 505 343 196 23 3 15 25 0 11 0 15 3 5 0 9 0 6 4 0 40 37 70 73 62 16 10 68 30 46 5 4
586 550 424 187 16 4 7 23 0 0 6 1 0 0 0 2 3 3 3 3 36 141 158 147 45 24 67 64 52 56 15 17
616 516 457 230 60 4 7 8 2 0 7 2 0 2 0 0 1 0 0 0 85 154 158 131 94 191 140 233 225 206 146 22
446 506 369 310 102 3 8 5 1 0 0 0 0 2 0 2 2 2 0 0 61 78 113 112 170 170 206 191 179 194 158 111
298 527 359 220 117 3 7 7 9 0 0 1 0 1 4 4 0 0 2 2 2 13 56 99 86 105 253 233 192 131 191 243
163 455 330 247 147 2 5 14 0 0 0 0 27 15 7 2 1 2 0 1 0 31 59 24 59 79 199 269 313 230 230 278
40 362 352 228 125 4 0 7 4 17 0 0 24 58 7 8 2 0 1 1 0 0 0 37 32 67 219 321 296 348 294 303
0 269 397 250 132 34 2 1 8 12 0 0 23 42 39 35 3 5 0 0 0 0 0 1 3 34 101 320 294 315 573 435
0 149 435 304 201 71 8 20 23 16 13 17 28 57 40 31 22 7 0 6 7 12 6 14 12 81 92 235 224 193 331 160
15 95 423 400 330 128 26 0 34 38 33 20 14 38 46 58 56 57 63 76 66 39 55 26 23 14 74 118 170 211 271 332
31 215 341 452 426 246 75 2 1 44 65 65 153 138 108 122 269 283 203 140 50 45 43 29 41 61 114 140 169 219 241 271
111 137 315 424 492 397 259 39 0 104 73 149 326 415 307 253 219 317 394 226 54 14 41 23 42 70 134 129 153 135 186 235
53 325 326 401 497 545 409 283 74 19 29 141 421 451 310 345 357 311 248 222 101 65 46 47 35 80 144 176 179 179 196 233
9 103 443 446 466 602 609 543 468 151 33 133 268 439 308 286 405 341 308 132 126 122 46 55 68 72 89 114 115 128 157 127
2 3 67 468 619 571 629 699 718 435 241 146 232 529 325 150 192 243 300 295 228 193 155 124 132 116 70 150 128 150 152 155
0 1 6 34 549 760 650 637 724 721 688 662 280 339 279 244 291 262 191 204 197 184 110 105 138 23 0 0 5 197 76 112
0 2 15 14 24 501 818 811 676 762 729 566 555 534 398 370 234 194 232 225 181 128 118 103 126 146 0 0 0 4 9 23
0 0 0 8 11 40 333 692 835 745 615 562 605 753 693 530 390 276 272 316 287 287 244 234 254 198 24 6 24 17 4 0

GFSFLT1_con_mucape_084.txt.gz
CAPE
225 358 312 224 74 81 116 55 18 37 35 1 4 7 0 0 1 1 6 8 3 7 5 15 37 55 98 64 13 5 1 0
372 472 397 268 215 12 5 12 14 17 0 0 0 3 0 0 0 3 12 6 4 6 12 22 66 68 86 25 10 0 0 0
467 580 445 345 74 0 0 6 11 0 0 0 0 6 0 0 4 3 3 5 8 4 11 2 4 49 60 53 14 6 0 0
555 673 529 365 28 0 1 5 6 0 0 1 0 0 28 6 0 1 3 1 1 4 3 1 0 10 33 34 3 0 0 0
436 676 539 379 66 0 0 1 2 0 0 0 1 0 0 0 0 2 2 0 0 0 0 3 39 32 45 11 25 1 55 0
189 736 546 441 117 0 0 2 7 0 0 0 0 0 3 0 2 4 0 0 0 0 2 36 26 114 98 88 96 71 95 90
0 718 473 305 98 0 0 1 4 4 0 0 0 0 3 2 1 0 6 7 1 0 50 60 77 94 93 102 95 88 58 86
0 542 402 231 112 0 0 3 3 4 0 0 0 0 4 1 7 4 0 0 0 0 3 16 54 70 113 106 67 82 108 76
0 366 409 256 177 0 0 4 3 4 4 0 1 0 0 0 1 0 0 0 0 0 0 0 3 34 63 81 48 32 79 104
0 118 422 271 174 7 0 0 3 3 4 3 2 5 0 0 0 4 5 10 5 7 7 4 8 1 4 18 48 28 40 81
2 0 511 346 204 118 0 0 0 0 3 4 4 12 19 3 2 0 0 2 9 2 8 17 11 17 6 12 25 47 51 95
17 1 535 455 357 244 29 0 0 1 0 2 0 11 17 2 3 0 0 0 0 1 4 8 9 11 2 8 3 3 45 30
75 126 230 522 506 352 171 6 0 10 9 0 2 9 9 4 15 12 0 0 0 0 0 0 0 1 2 0 0 0 0 21
64 219 210 445 530 487 288 148 10 0 60 26 5 1 4 7 13 16 8 0 0 0 0 0 0 0 0 0 0 0 0 0
1 96 330 327 480 586 514 428 169 21 7 92 61 47 47 10 0 5 44 31 13 9 4 0 0 1 0 0 0 0 0 6
0 0 5 392 408 591 632 567 509 241 63 13 78 89 84 95 92 40 8 35 47 31 5 0 0 3 1 0 0 0 0 11
2 0 0 0 14 491 506 650 694 460 367 163 55 97 149 107 66 71 61 66 46 38 32 24 8 0 0 0 0 0 3 5
0 0 0 0 1 2 626 649 712 742 554 462 301 123 121 209 107 64 92 91 96 62 52 16 6 11 15 12 4 1 9 12
1 6 11 33 2 9 15 123 690 689 713 701 618 483 242 178 181 109 92 107 126 142 131 100 49 38 49 46 39 42 38 8

GFSFLT1_con_mucape_087.txt.gz
CAPE
0 21 93 64 52 165 8 0 0 7 3 6 2 0 2 0 0 3 45 20 35 65 50 62 23 0 7 26 20 0 0 0
0 35 34 48 36 14 0 0 0 1 0 0 0 0 0 0 0 8 22 22 30 19 6 8 15 0 41 53 14 0 0 13
5 83 84 100 95 8 0 0 0 2 0 0 0 0 0 0 0 0 8 13 31 4 1 5 3 21 48 56 38 6 16 9
47 102 105 129 135 13 0 0 0 0 11 8 0 0 0 0 0 0 5 21 35 4 3 21 19 38 57 72 46 4 4 6
116 124 133 161 164 26 0 0 0 0 12 7 0 0 0 0 2 5 7 11 16 13 11 11 15 20 49 45 0 1 5 0
207 185 213 199 159 32 0 0 0 4 0 7 0 0 0 0 9 0 11 15 4 3 3 9 12 1 0 0 5 11 12 0
266 276 283 228 162 60 0 0 1 4 0 4 0 0 0 0 0 0 9 5 2 0 0 0 5 4 1 3 23 15 48 22
277 326 325 261 183 85 0 0 1 12 0 1 0 0 0 0 1 8 11 9 0 0 0 0 0 1 26 11 22 41 66 99
358 398 312 292 177 42 6 0 0 1 2 1 2 3 0 0 0 3 12 14 2 1 1 0 0 16 42 38 39 60 68 57
422 455 315 243 151 40 0 0 0 1 4 3 2 2 0 0 0 0 0 0 11 9 4 7 0 16 31 61 46 46 43 8
344 354 314 223 161 59 3 0 0 0 6 2 3 2 1 0 0 0 0 0 0 6 3 9 20 21 6 18 48 34 21 16
1 352 336 268 197 94 33 10 0 0 0 5 3 9 0 0 0 0 0 0 0 0 0 6 8 12 16 13 8 12 23 12
54 322 363 303 205 149 89 44 0 0 0 0 1 4 6 3 0 0 1 0 0 0 0 0 0 3 3 2 3 4 12 8
2 289 359 291 207 205 191 145 90 35 0 0 0 1 4 9 3 1 2 0 0 0 0 0 0 0 0 0 0 0 0 0
0 7 140 372 284 259 275 266 231 216 63 3 0 0 0 1 9 5 3 2 2 0 0 0 0 0 0 0 0 0 0 0
0 0 0 6 132 402 371 350 340 299 247 87 45 38 14 0 0 0 0 7 15 1 0 0 0 0 0 0 0 0 0 0
0 0 0 1 0 0 127 514 459 416 352 317 295 163 96 76 41 10 20 33 31 44 57 63 0 0 0 0 0 0 0 0
0 2 14 10 23 4 93 211 492 585 511 467 431 395 343 228 112 74 43 20 32 32 54 67 70 34 14 5 4 0 0 2
0 0 0 0 16 29 1 9 45 343 681 589 585 492 384 312 189 166 126 122 115 67 26 50 62 97 53 59 24 11 2 1

GFSFLT1_con_mucape_093.txt.gz
CAPE
0 0 37 111 291 235 50 0 9 30 28 0 0 6 28 33 41 67 43 57 83 49 38 30 40 6 10 0 0 3 0 0
0 5 74 131 307 204 80 28 0 19 0 0 1 0 6 8 7 10 69 40 71 33 53 28 27 26 8 11 9 0 0 0
0 54 168 243 291 198 93 39 10 2 0 0 0 0 0 0 0 0 0 16 31 45 60 43 55 28 18 5 2 0 5 2
0 38 198 225 248 193 113 52 37 7 0 0 0 0 0 0 0 0 0 6 18 35 44 50 50 32 16 3 5 1 2 9
0 28 118 209 254 166 139 68 69 5 0 0 0 0 0 0 0 0 0 2 24 44 32 27 17 27 25 4 3 4 49 7
2 64 115 191 247 196 123 79 102 7 0 0 0 0 0 0 0 0 0 0 0 25 19 36 8 18 12 8 8 0 24 51
0 18 17 127 209 203 122 106 110 9 0 0 0 0 0 0 0 0 0 0 4 6 18 10 4 18 17 10 5 0 0 56
0 11 48 85 191 197 143 140 122 23 0 0 0 0 0 0 0 0 0 0 0 0 0 2 5 9 6 3 0 0 0 0
0 11 28 48 183 204 173 183 127 31 0 0 0 0 0 0 0 0 0 0 0 0 3 0 0 3 8 0 4 16 0 28
0 13 20 20 147 201 196 212 130 30 0 0 0 3 0 0 0 0 0 0 2 7 7 20 10 12 10 2 23 0 6 6
3 18 20 14 104 210 231 243 146 31 0 0 0 0 0 0 0 0 0 0 0 0 1 1 0 23 12 4 4 4 16 7
89 44 25 25 83 239 263 235 176 58 0 1 0 0 0 0 0 0 0 0 0 0 0 0 0 0 0 0 5 14 14 19
214 134 117 128 153 268 326 271 206 77 13 0 1 0 0 0 0 0 0 0 0 0 0 0 0 0 0 0 0 0 3 4
334 317 294 247 262 317 348 326 224 88 97 53 1 0 0 0 0 0 0 0 0 0 0 0 0 0 0 0 0 0 0 0
338 447 447 388 331 314 268 285 256 146 175 171 113 28 0 0 0 0 0 0 0 0 0 0 0 0 0 0 0 0 0 0
31 107 137 163 187 182 184 133 178 149 174 155 139 162 136 52 0 0 0 0 0 0 0 0 0 0 0 0 0 0 0 0
4 0 0 1 0 2 19 70 92 148 189 178 105 118 114 131 100 60 13 0 0 0 0 0 0 0 0 0 0 0 0 0
0 0 0 0 0 0 0 0 19 57 104 125 119 119 125 118 100 96 103 98 103 73 41 10 0 0 0 0 0 0 0 0
0 0 0 0 0 0 0 0 0 19 72 74 51 61 78 76 60 88 98 78 66 88 96 126 107 82 69 36 4 0 5 2

GFSFLT1_con_mucape_096.txt.gz
CAPE
0 0 23 135 197 195 347 194 34 32 34 0 19 29 11 87 106 129 68 37 11 12 6 15 25 61 35 26 9 0 0 0
0 0 0 23 109 173 363 256 45 3 0 0 0 3 2 15 92 167 58 34 59 28 16 16 20 1 30 20 0 0 5 0
0 0 0 38 87 127 313 294 72 23 0 0 5 3 0 3 20 29 35 123 34 33 25 30 31 4 70 17 2 0 8 6
0 0 19 58 68 82 292 300 97 43 4 0 0 2 1 1 0 0 1 1 63 49 27 32 45 23 60 22 2 4 6 12
0 0 31 96 105 114 276 284 132 60 17 0 0 0 0 0 0 0 0 0 0 5 13 27 77 47 48 21 10 3 2 0
0 0 6 107 156 160 281 256 157 80 37 0 0 0 0 0 0 0 0 0 0 9 13 30 16 38 29 29 16 8 0 1
0 0 1 104 131 177 248 210 169 90 64 16 0 0 0 0 0 0 0 0 0 14 10 5 25 5 45 25 18 10 6 0
0 0 1 92 98 150 193 214 171 110 84 23 0 0 0 0 0 0 0 0 0 0 0 2 10 14 34 19 19 22 6 1
0 0 0 17 31 77 168 229 176 122 108 31 0 0 0 0 0 0 0 0 0 0 0 8 11 3 6 9 11 17 18 2
0 0 0 1 4 20 119 210 158 134 140 41 0 0 0 0 0 0 0 0 0 0 0 0 0 1 0 7 1 3 3 3
0 0 0 0 6 0 38 192 172 154 159 45 0 0 0 0 0 0 0 0 0 0 0 0 0 0 3 4 4 7 0 0
18 0 0 0 2 2 23 172 191 175 154 55 0 0 0 0 0 0 0 0 0 0 0 0 8 0 5 0 7 15 12 5
135 35 0 0 1 7 20 154 191 234 154 52 0 0 0 0 0 0 0 0 0 0 0 0 11 0 0 6 0 6 4 6
312 271 143 47 7 7 16 152 195 230 136 51 13 2 0 0 0 0 0 0 0 0 0 0 0 0 4 3 0 0 0 0
364 343 355 250 137 82 91 207 189 166 177 102 90 81 34 0 0 0 0 0 0 0 0 0 0 0 0 0 0 0 0 0
107 201 260 332 276 235 198 194 185 188 185 108 129 116 94 51 14 0 0 0 0 0 0 0 0 0 0 0 0 0 0 0
10 21 29 64 82 79 50 22 29 57 74 102 111 108 105 98 82 70 55 13 0 0 0 0 0 0 0 0 0 0 0 0
0 12 2 16 14 12 4 0 0 23 57 79 81 126 74 54 66 68 70 56 49 40 39 45 38 25 9 0 0 1 2 0
0 0 0 0 0 0 0 0 1 7 35 31 81 59 51 40 34 24 31 32 41 49 21 18 8 34 23 23 25 37 18 19

GFSFLT1_con_mucape_099.txt.gz
CAPE
0 0 0 62 190 154 191 68 153 160 157 78 20 0 22 312 28 30 58 150 101 110 33 6 6 13 18 38 60 45 89 70
0 0 0 0 91 141 126 108 182 189 49 59 15 0 0 7 25 36 64 82 39 44 33 8 2 5 30 34 52 60 0 48
0 0 0 0 4 130 123 143 228 225 48 4 26 2 4 1 32 41 45 172 69 85 35 47 18 7 6 26 35 4 13 24
0 0 0 0 0 107 169 225 257 278 103 0 0 3 6 20 5 20 46 50 85 89 34 46 12 25 5 12 16 22 3 4
0 0 0 0 12 95 179 216 236 307 152 19 6 0 0 0 1 0 1 18 17 16 24 34 60 37 22 6 4 12 1 0
0 0 0 0 23 122 196 190 171 283 201 53 24 2 0 0 0 0 3 0 0 20 8 31 13 73 36 50 9 12 0 0
0 0 0 5 94 179 230 130 103 264 230 89 47 4 0 0 0 0 0 0 0 0 40 0 6 12 23 57 11 22 0 0
0 0 0 105 197 323 307 154 114 262 244 129 76 7 0 0 0 0 0 0 0 0 2 12 8 35 18 40 40 40 22 10
0 0 11 198 321 393 194 83 152 229 226 152 113 16 0 0 0 0 0 0 2 0 27 7 13 6 0 32 25 49 15 9
1 0 0 204 325 303 201 74 153 223 188 170 137 24 0 0 0 0 0 0 0 0 0 0 0 5 9 19 0 2 12 1
7 0 0 93 209 179 112 46 132 182 167 159 136 17 0 0 0 0 0 0 0 0 0 0 1 0 10 2 17 2 3 5
177 10 15 50 94 64 5 31 253 142 191 155 137 5 0 0 0 0 0 0 0 0 0 0 0 0 0 0 0 2 0 0
252 126 11 11 29 3 1 119 216 149 177 152 96 2 0 0 0 0 0 0 0 0 0 0 0 5 1 0 0 0 5 3
320 155 52 59 182 69 104 170 127 200 211 154 59 0 0 0 0 0 0 0 0 0 0 0 5 5 5 2 5 0 3 8
359 208 33 20 16 90 178 183 125 225 206 163 28 16 12 0 0 0 0 0 0 0 0 0 0 0 0 3 13 9 5 0
333 402 268 78 35 1 13 122 212 221 186 159 59 79 69 30 0 0 0 0 0 0 0 0 0 0 0 0 0 4 12 5
95 155 249 191 176 257 128 170 145 120 86 34 52 89 98 90 52 10 0 0 0 0 0 0 0 0 0 0 0 0 0 0
1 37 37 50 32 49 64 44 27 19 23 14 32 55 48 87 92 77 64 55 30 10 7 9 10 14 11 6 0 0 0 0
0 0 11 20 46 94 89 39 18 3 0 20 42 72 51 58 124 68 73 49 47 40 25 30 16 6 2 1 8 14 23 31

GFSFLT1_con_mucape_102.txt.gz
CAPE
0 0 0 0 52 552 952 1102 1144 460 426 1046 825 361 445 216 192 488 504 295 384 428 302 8 17 20 19 26 10 14 47 142
0 0 0 0 0 405 819 1001 1190 390 662 758 524 235 66 319 154 169 274 397 287 262 110 5 4 15 30 19 13 9 52 67
0 0 0 0 0 112 621 870 1116 837 979 859 547 336 196 103 105 176 402 419 274 232 40 26 4 5 26 16 5 20 40 58
0 0 0 0 0 9 424 701 1056 888 974 791 474 347 67 88 61 1 81 312 176 35 29 20 34 1 11 3 6 21 0 0
0 0 0 0 0 0 231 514 895 858 968 740 366 184 75 77 40 1 7 50 47 48 41 43 7 2 4 25 10 8 4 0
0 0 0 0 0 7 292 475 772 848 958 706 500 457 318 102 18 9 8 28 60 54 23 30 18 43 25 22 14 7 2 13
0 0 0 0 0 14 454 533 774 831 840 711 614 523 237 30 8 11 18 19 24 29 67 8 30 14 36 12 14 2 5 32
0 0 0 0 0 330 579 614 765 753 381 545 541 266 225 53 3 3 8 5 22 25 41 67 3 30 27 7 22 12 1 4
52 36 0 0 36 545 637 652 663 447 348 402 337 209 277 34 2 2 5 12 24 27 51 56 34 6 0 32 41 17 44 12
40 248 51 0 274 618 720 560 504 530 352 227 334 375 156 6 5 5 7 12 0 3 36 0 1 2 20 12 1 10 36 33
117 404 162 0 416 745 644 464 405 490 186 225 346 238 146 8 9 4 12 18 0 0 0 0 3 7 6 3 3 4 15 16
44 48 339 105 381 670 409 355 398 382 107 268 328 208 127 10 11 9 11 19 0 0 0 0 0 0 7 5 1 14 8 6
5 180 95 174 379 404 295 358 254 147 165 296 298 226 80 9 14 13 9 6 3 0 0 0 0 0 0 0 0 0 2 10
227 168 10 75 302 253 56 12 47 249 156 277 265 243 5 8 12 16 10 8 3 0 0 0 0 0 0 0 0 0 0 0
128 142 18 112 62 51 88 40 108 318 331 278 215 138 3 9 14 14 11 7 5 0 9 0 0 0 1 0 0 0 0 4
42 249 35 44 113 206 179 284 540 478 255 202 185 53 0 0 4 7 10 10 7 7 8 18 12 0 0 0 0 0 4 0
0 198 189 101 34 42 63 185 214 222 235 194 77 38 33 25 10 2 6 5 7 8 2 17 23 0 0 0 0 0 0 0
0 0 174 218 139 184 111 175 222 187 173 139 61 13 15 22 64 39 11 11 19 5 8 12 11 0 0 0 0 3 21 15
0 0 0 2 82 56 28 34 153 104 74 52 47 19 0 4 22 58 65 60 28 10 10 3 3 10 10 5 6 15 24 24

GFSFLT1_con_mucape_105.txt.gz
CAPE
0 0 0 0 0 0 423 1715 2140 2047 1589 1653 1533 1252 936 704 753 716 681 895 1074 793 674 558 500 177 48 12 11 25 35 50
0 0 0 0 0 0 468 1466 2005 1827 1079 1355 1502 1294 472 657 392 607 873 714 835 771 522 3 1 2 11 18 27 7 24 46
0 0 0 0 0 0 341 932 1477 1814 1095 1135 1380 1152 416 674 632 522 486 356 620 627 300 2 0 0 0 31 39 3 27 9
0 0 0 0 0 0 0 565 1079 1658 1105 1208 1319 1070 545 457 442 487 490 432 666 553 315 7 1 1 0 35 29 32 28 10
0 0 0 0 0 3 0 150 738 1300 1296 1313 1485 1081 787 578 607 190 372 443 350 383 124 7 11 0 3 5 11 30 7 0
0 0 0 0 0 4 44 17 416 1008 1497 1527 1710 1130 925 699 590 353 191 281 151 199 92 73 8 0 1 8 15 69 5 0
27 18 0 0 0 0 29 38 266 972 1404 1672 1790 1160 1029 842 661 280 56 138 146 146 95 21 16 9 0 8 15 40 52 25
42 40 114 4 0 0 45 99 292 879 1412 1590 1436 1131 1160 969 575 230 147 39 28 111 227 117 16 9 1 4 11 20 20 11
11 33 312 187 2 0 0 27 455 642 1244 1364 1471 1242 1200 851 547 224 113 45 12 13 27 94 50 29 13 0 2 2 9 10
3 0 12 358 166 0 30 372 580 688 1269 1344 1410 1457 1078 885 532 179 113 61 10 24 25 35 27 33 2 20 17 11 12 7
0 0 4 35 131 65 625 844 745 953 645 628 1029 951 1132 761 395 160 98 10 6 16 14 19 51 39 15 4 9 1 4 6
0 0 98 87 128 645 940 897 857 590 407 820 673 882 1027 628 254 89 39 6 32 6 12 0 0 0 5 1 2 1 12 13
0 0 207 113 234 585 626 869 534 405 458 676 511 1108 781 481 222 70 27 2 10 6 11 0 0 2 3 2 0 5 0 0
0 0 196 120 372 415 469 392 414 430 417 428 454 853 540 289 107 49 11 6 9 7 14 2 0 3 0 0 1 5 2 2
0 0 30 58 211 345 184 358 303 260 138 204 277 748 610 255 47 7 51 4 5 16 7 8 0 0 6 6 10 9 9 5
0 0 3 107 36 59 396 54 109 218 185 274 354 388 301 246 22 27 15 8 5 4 7 12 7 1 6 11 4 4 6 4
0 0 0 75 41 105 65 102 137 139 246 378 386 291 172 141 24 0 6 7 6 24 8 11 34 18 12 0 6 14 17 17
0 0 0 1 67 216 228 158 244 367 416 392 320 185 164 62 37 9 9 9 15 17 10 8 8 3 4 0 0 0 19 29
0 0 0 0 8 26 95 233 321 203 271 312 222 111 99 73 60 24 0 0 0 2 8 11 16 3 1 2 0 2 10 1

GFSFLT1_con_mucape_108.txt.gz
CAPE
0 0 0 0 0 0 1829 2188 2337 2043 1942 1822 1627 1525 1017 907 703 739 749 655 904 953 706 499 316 312 220 137 51 57 30 35
0 0 0 0 0 0 1028 2131 2323 2025 1870 1723 1577 1399 1125 792 657 545 482 599 759 853 520 308 408 110 195 31 16 35 60 51
0 0 0 0 0 0 447 1967 2289 1972 1832 1579 1479 1392 1062 771 360 356 583 660 798 649 377 170 29 28 33 2 0 16 38 32
0 0 0 17 12 37 4 554 2125 1896 1596 1214 1148 1305 1119 805 467 336 373 539 461 538 244 72 17 0 2 1 3 9 68 19
0 0 0 1 24 85 6 69 1152 1802 1607 1175 882 1070 1033 822 458 225 304 306 425 415 156 51 1 0 0 0 0 0 21 5
0 0 0 0 0 0 71 23 336 1318 1529 1260 1003 1235 993 487 441 298 193 447 308 358 170 38 1 0 3 0 0 0 8 27
16 10 20 11 0 0 0 75 74 662 1512 1255 1255 1247 938 638 607 431 216 197 260 207 98 31 2 0 0 1 0 0 2 31
5 2 1 11 103 163 0 0 29 283 1464 1385 1344 1471 1135 810 637 450 204 136 119 145 98 48 10 0 0 12 0 0 1 1
0 0 0 0 81 191 31 0 9 165 1167 1532 1254 1648 1138 1006 791 538 288 100 57 18 117 22 18 5 1 7 5 0 3 8
0 0 0 0 62 64 81 2 0 80 771 1460 1276 1426 1134 1175 818 622 342 171 23 0 31 74 14 1 0 0 1 1 18 8
0 0 0 0 0 6 46 114 0 312 1090 1268 1423 1247 1227 1102 820 546 355 215 64 0 2 15 33 10 10 4 0 1 5 1
0 0 0 1 0 279 451 673 698 1109 1281 1221 1194 1164 1137 1065 730 565 365 160 37 0 5 11 22 27 8 4 0 2 12 1
0 0 0 35 5 173 402 549 639 776 851 931 947 920 979 1011 866 483 292 142 0 1 35 3 11 11 6 0 0 0 4 0
0 0 0 0 80 50 182 538 412 365 670 641 694 723 877 889 823 377 354 77 4 8 54 14 0 0 1 5 8 3 1 1
0 0 0 0 13 13 209 293 300 348 519 373 411 702 823 998 789 406 354 30 12 4 6 5 0 0 1 1 9 11 2 5
0 0 0 0 4 21 129 61 168 81 249 440 439 816 715 862 504 243 188 38 24 35 4 5 9 10 3 5 5 14 6 5
0 0 0 0 0 1 59 12 273 15 163 291 470 482 654 681 592 229 114 26 13 8 43 10 4 3 7 0 6 15 16 5
0 0 0 0 0 0 14 25 51 130 281 415 369 537 579 445 476 154 94 8 12 8 8 3 19 3 2 0 0 10 9 6
0 0 0 0 0 0 0 0 77 91 113 102 299 417 507 456 398 166 72 7 1 6 5 6 2 5 0 0 0 2 2 8

GFSFLT1_con_mucape_114.txt.gz
CAPE
0 0 0 0 0 2 1306 1822 1970 2031 1933 1819 1685 1789 1622 1621 1590 1294 1055 810 779 830 725 619 499 504 458 383 362 337 164 106
0 0 0 0 0 0 783 1384 1751 1952 1959 1798 1915 1921 1759 1485 1164 952 698 552 621 695 700 537 456 391 312 361 318 267 259 213
0 0 0 0 0 0 380 1130 1656 1860 1902 1901 1742 1598 1524 1420 1252 970 592 510 383 489 666 431 454 446 288 264 471 481 220 177
0 0 0 0 0 0 408 1132 1738 1813 1858 1767 1569 1488 1352 1354 1341 1142 751 524 331 425 618 497 442 385 271 413 112 381 299 66
3 0 0 0 0 0 104 1343 1612 1805 1834 1782 1672 1377 1224 1355 1380 1069 870 666 339 482 539 578 459 351 206 120 114 155 102 13
9 15 2 0 0 0 0 970 1714 1721 1651 1717 1770 1388 1146 1161 1189 1084 846 772 644 405 466 539 532 411 75 48 51 278 163 51
9 11 4 0 0 0 0 0 562 1357 1550 1412 1337 1298 1259 1206 1075 911 823 835 845 636 416 487 534 362 188 62 19 118 35 0
20 8 4 0 0 0 0 0 0 179 891 1213 1244 1247 1250 1190 991 955 978 971 940 941 578 535 533 256 97 10 0 5 0 3
53 21 6 0 0 0 0 0 2 15 1 353 1069 1276 1228 1013 957 922 1094 1149 1051 982 426 347 325 189 4 2 6 0 0 1
112 34 5 0 0 0 0 0 3 34 29 9 182 1032 1203 1057 960 787 772 898 916 644 310 355 368 142 3 225 35 1 1 1
58 0 0 0 0 0 0 2 2 27 42 28 19 746 1062 1131 929 795 1027 960 772 479 245 231 269 113 191 52 18 14 0 1
1 0 0 0 0 0 0 3 4 73 58 47 361 754 805 1023 851 944 1108 818 770 529 353 264 177 149 24 53 45 0 2 0
0 0 0 0 0 0 0 3 43 150 144 287 344 811 773 800 758 857 1001 881 712 684 514 161 168 202 63 46 4 42 4 21
0 0 0 0 0 0 0 0 38 142 156 176 517 864 854 655 595 618 829 836 742 673 479 182 137 123 58 80 8 6 1 2
0 0 0 0 0 0 0 0 7 32 44 61 98 240 297 423 408 380 449 611 625 567 534 177 76 55 66 21 33 9 11 7
0 0 0 0 0 0 0 5 17 4 14 16 12 51 311 305 199 241 381 484 407 400 360 239 46 10 52 72 24 9 4 25
0 0 0 0 0 0 0 0 15 18 47 10 1 0 15 93 253 258 243 331 432 263 375 378 46 0 7 11 12 22 14 38
0 0 0 0 0 0 0 0 2 3 9 8 25 23 39 25 163 208 291 300 308 256 310 78 16 1 0 1 0 7 7 9
0 0 0 0 0 0 0 0 0 0 0 0 24 25 20 27 139 27 129 46 201 313 285 34 26 0 0 0 0 0 6 5

GFSFLT1_con_mucape_117.txt.gz
CAPE
0 0 0 0 56 1401 1968 2228 2283 2180 2000 1705 1499 1359 1179 1102 952 1098 1063 1017 1083 1040 891 780 715 648 644 534 439 401 335 241
0 0 0 0 0 2 1365 1822 2101 2174 2132 2006 1825 1701 1585 1369 1491 1559 1436 1317 1319 1045 824 829 706 580 806 687 393 555 285 223
0 0 0 0 0 0 0 1189 1704 2028 2016 2047 1831 1789 1675 1555 1767 1756 1681 1532 1326 842 780 818 766 639 668 592 349 220 294 252
0 0 0 0 0 0 0 502 1125 1681 1968 1851 1830 1714 1630 1363 1443 1650 1627 1321 1066 751 656 702 704 576 811 248 243 194 119 130
0 0 0 0 0 0 52 660 1061 1557 1881 1838 1718 1709 1617 1333 1277 1326 1317 1174 749 669 554 559 616 532 381 152 218 157 92 21
0 0 0 0 0 0 178 794 1276 1709 1922 1847 1720 1595 1528 1200 1229 1209 1378 1224 987 702 535 426 608 536 440 374 286 198 189 18
0 0 0 0 0 0 0 316 1174 1350 2049 2292 1724 1640 1533 1210 1143 1043 1157 1258 1041 844 622 319 503 527 457 368 240 15 182 80
1 0 0 0 0 0 0 0 0 297 1507 1753 1999 1576 1487 1279 866 469 562 1025 1045 838 649 542 426 465 501 442 297 112 44 91
43 26 21 14 12 0 0 0 0 0 15 667 1231 1874 1882 1418 562 344 920 867 791 780 667 680 628 565 362 421 196 103 118 150
102 79 40 4 0 0 0 0 0 0 0 9 19 569 1161 1352 1266 1060 1024 885 675 712 701 801 804 685 351 733 383 262 40 21
114 64 11 0 0 0 0 0 2 2 11 34 30 28 25 730 1174 1060 966 916 792 656 658 889 925 593 255 506 255 4 7 50
144 112 76 19 0 0 0 0 1 2 10 15 18 13 28 450 790 969 846 785 679 567 778 941 779 335 249 336 56 4 16 10
127 118 74 0 0 0 0 0 2 15 25 40 49 127 433 662 668 707 642 630 593 466 582 546 422 266 315 240 14 8 5 7
44 16 5 0 0 0 0 0 2 1 35 110 170 357 652 673 854 584 623 596 473 427 495 445 409 297 171 149 63 11 32 5
0 0 2 0 0 0 0 0 0 0 22 47 45 80 576 428 661 833 666 459 353 341 345 391 357 174 118 127 67 18 23 11
0 0 0 0 0 0 0 0 0 0 0 4 26 23 28 102 178 297 259 193 282 385 376 314 230 150 112 70 38 78 58 10
0 0 0 0 0 0 0 0 0 4 6 17 3 13 9 12 21 69 61 50 126 197 275 164 143 75 77 19 13 13 23 25
0 0 0 0 0 0 0 0 0 0 1 6 1 4 16 10 29 33 73 100 133 203 153 118 136 95 49 14 19 15 19 15
0 0 0 0 0 0 0 0 0 0 0 0 0 1 9 7 12 24 8 26 17 244 41 163 92 87 216 3 9 0 0 3

GFSFLT1_con_mucape_120.txt.gz
CAPE
0 0 0 4 1229 1711 2095 2215 2030 1586 1178 1058 997 831 726 477 432 429 439 595 702 732 724 743 693 704 588 511 437 439 333 270
0 0 0 0 0 807 1623 2172 2230 2065 1836 1645 1390 1235 1076 781 652 558 540 478 530 603 691 695 720 671 556 606 637 399 541 183
0 0 0 0 0 0 0 1050 2150 2161 2098 2008 1871 1678 1492 1256 938 896 771 778 861 793 955 994 929 796 666 600 285 129 215 159
0 0 0 0 0 0 0 0 1021 2065 2134 2059 1901 1893 1858 1733 1531 1365 1097 1203 1354 1119 1119 1173 772 776 660 530 124 278 31 35
0 0 9 0 0 0 0 0 138 1306 2009 1993 1870 1716 1545 1696 1874 1668 1336 1703 1625 1495 1383 1263 681 652 700 341 167 94 151 62
0 0 3 8 2 96 163 196 511 1024 1800 2031 1932 1683 1760 1488 1424 1493 1540 1414 1474 1609 1425 1205 752 597 565 359 157 281 84 90
0 1 0 0 14 111 287 719 832 988 1553 1724 1736 1790 1809 1693 1576 1413 1239 1110 1330 1454 1288 976 750 544 454 576 423 150 82 83
33 14 12 9 98 85 192 635 1109 1072 1474 1887 1868 1600 1823 1649 1674 1521 1279 1083 940 970 778 961 788 649 415 244 593 522 295 90
68 41 24 6 37 56 2 25 49 236 702 1353 1586 1695 1390 1824 1527 1537 1413 1092 601 274 129 527 814 747 527 249 354 369 282 276
116 82 41 23 4 7 12 26 19 18 28 56 249 816 1262 1386 1535 1281 1293 1009 229 33 85 344 628 741 576 430 269 294 288 240
160 157 123 100 69 37 21 4 0 0 3 3 22 29 35 295 1079 1325 1256 1281 265 146 177 510 494 674 592 570 494 564 308 272
150 161 190 161 54 16 2 1 0 0 3 23 30 29 27 3 34 91 743 946 913 671 622 458 472 522 628 629 609 731 437 307
0 86 71 23 8 4 1 1 0 0 1 10 16 20 35 75 266 651 631 762 603 711 591 493 451 401 366 566 958 392 324 188
0 1 3 113 93 44 12 0 0 0 7 8 9 6 61 182 280 530 726 559 629 384 403 336 326 168 197 378 336 217 320 193
0 0 0 0 10 0 0 0 0 0 1 1 3 73 22 160 158 356 534 624 205 337 376 259 360 135 151 188 230 579 173 55
0 0 0 0 0 0 0 0 0 0 0 0 4 9 18 53 156 296 238 429 274 147 317 504 435 80 86 107 409 150 145 71
0 0 0 0 0 0 0 0 0 0 0 0 13 5 6 45 34 34 34 58 97 138 43 13 55 78 171 165 132 93 84 82
0 0 0 0 0 0 0 0 0 0 0 0 0 0 0 5 21 13 6 1 20 59 36 35 39 4 92 41 71 83 66 48
0 0 0 0 0 0 0 0 0 0 0 0 0 0 6 15 5 6 2 7 0 11 4 13 19 11 36 89 90 55 93 51

GFSFLT1_con_mucape_123.txt.gz
CAPE
0 0 0 0 0 1376 2142 1995 1623 1484 1372 1335 1202 1060 1001 1001 800 881 812 1124 1310 1435 876 754 634 762 721 633 488 374 288 252
0 0 0 0 0 421 1946 2221 1932 1609 1338 1492 1323 1220 1163 1051 915 944 986 1034 1127 969 778 662 560 587 690 648 587 404 405 215
0 0 0 0 0 5 998 1774 2410 1978 1768 1793 1691 1583 1402 1380 1110 969 1015 1068 1095 1050 772 515 480 518 622 473 413 316 403 161
0 0 0 0 0 1 57 444 1788 2501 2365 2226 1868 1803 1683 1469 1402 1234 1057 995 1016 993 919 654 420 519 821 561 411 695 297 80
0 0 0 0 0 0 0 0 0 1125 2720 2430 2241 1901 1810 1794 1767 1666 1471 1118 1197 1126 885 586 511 700 671 630 405 635 458 145
52 20 6 3 9 35 8 1 0 48 909 2231 2398 2349 2412 2171 1838 1900 1762 1563 1245 1026 744 1055 845 872 785 365 414 644 437 347
82 82 33 61 38 78 162 96 74 245 889 1230 1796 2030 1997 1991 1890 1550 1420 1331 1441 1330 945 1083 1088 752 806 512 644 666 403 256
91 102 70 65 89 126 141 157 261 469 753 1004 1315 1596 1964 2061 1771 1728 1581 1473 1364 1314 1257 1005 931 913 824 744 609 698 527 401
86 99 107 127 204 291 434 511 606 703 805 1143 1541 1438 1363 1476 1664 1500 1355 1247 1290 1106 840 852 855 823 734 698 630 493 290 297
98 83 177 243 295 363 480 452 399 500 633 705 837 997 1069 1156 1228 1295 1137 961 1105 1003 886 854 617 431 212 280 603 659 449 279
84 95 117 187 216 259 224 206 131 40 9 6 84 170 298 476 636 669 857 949 914 864 840 664 589 426 125 181 516 532 514 237
26 20 72 94 134 157 160 133 66 3 0 0 0 3 5 26 56 75 168 323 724 811 1018 656 317 173 106 234 644 292 504 428
0 1 42 65 152 110 181 69 4 0 0 0 9 22 37 72 76 69 155 238 113 442 631 732 445 180 50 199 324 294 477 473
0 0 0 0 0 35 11 0 0 0 0 1 6 42 74 66 120 181 278 243 497 487 408 398 537 724 686 382 313 186 154 431
0 0 0 0 0 0 0 0 0 0 0 0 1 4 6 83 26 36 88 217 343 481 385 356 309 330 538 477 211 106 79 170
0 0 0 0 0 0 0 0 0 0 0 0 0 3 18 13 13 47 21 101 281 203 179 220 251 80 70 128 30 131 162 92
0 0 0 0 0 0 0 0 0 0 0 0 0 0 16 10 18 36 25 39 49 123 144 132 145 138 69 58 92 56 61 81
0 0 0 0 0 0 0 0 0 0 0 0 0 0 0 5 15 17 29 31 17 7 1 21 23 23 18 35 31 93 69 60
0 0 0 0 0 0 0 0 0 0 0 0 0 0 0 0 1 1 3 12 3 1 5 4 4 6 3 32 0 2 27 44

GFSFLT1_con_mucape_126.txt.gz
CAPE
0 0 0 0 0 0 0 293 2061 2088 2069 1987 1780 1827 1690 1612 1425 1330 1421 1372 1479 1567 1258 1220 1451 1479 1550 1346 882 709 1185 1241
0 0 0 0 0 0 0 50 1850 2403 1991 1759 1758 1767 1900 1609 1640 1552 1603 1225 1772 1441 1455 1287 1139 1348 1157 1153 908 1013 878 944
0 0 3 1 0 0 0 119 982 2452 2242 1791 1703 1785 1648 1705 1720 1661 1675 1751 1513 1394 1377 1161 1112 1462 1284 1146 1155 938 912 678
1 7 2 2 1 0 0 10 1474 2312 2510 2355 1846 1750 1808 1854 1917 1819 1751 1703 1789 1551 1752 1876 1503 1408 1127 1042 945 691 570 463
0 0 3 0 0 0 0 10 284 1839 2275 2297 2464 2358 2436 2515 2472 2277 1996 1737 1686 1791 1755 1796 1669 1135 1367 912 792 831 729 358
0 0 0 2 1 0 0 0 0 1217 1959 1728 1813 2485 2623 2740 2465 2296 2066 1701 1707 1721 1817 2048 1857 1182 1269 1053 672 831 1183 1383
0 2 61 94 105 66 0 2 0 0 1118 1432 1462 1753 2669 2475 2671 2413 2315 1851 1646 1988 2172 1970 1646 1288 1140 1250 876 1077 1319 1548
0 7 36 42 93 161 159 94 65 130 287 914 1851 1893 1764 1809 1745 2035 1957 1825 1706 1804 2124 1964 1412 1206 1044 1222 1459 1033 1268 1383
13 22 98 51 107 120 189 159 213 310 483 743 897 1157 1308 1359 1920 1463 1488 1355 1610 1663 1887 1891 1646 1015 1293 1631 1848 1582 1600 1791
5 96 217 107 96 144 285 145 219 311 424 601 896 752 896 953 921 945 794 973 1189 1352 1428 1410 1584 1079 1275 1313 1125 896 965 1517
0 78 205 245 116 165 300 331 202 173 190 480 630 574 545 463 304 331 353 596 642 695 1171 1250 1499 1228 819 829 636 777 775 716
0 82 125 98 70 122 263 280 221 168 103 28 75 66 36 5 1 0 0 0 54 276 791 986 1096 1039 986 1159 681 572 527 459
0 0 0 12 57 120 194 197 206 128 47 19 5 16 8 0 0 0 0 16 128 190 327 564 417 530 1170 896 576 293 213 163
0 0 0 0 0 54 105 96 75 11 4 6 3 0 13 18 27 45 88 106 146 254 409 238 250 316 611 568 420 160 79 86
0 0 0 0 0 0 4 51 0 2 0 0 3 8 27 33 26 93 127 175 348 398 363 501 361 244 107 164 356 176 297 329
0 0 0 0 0 0 0 0 0 0 0 0 1 6 10 14 60 20 22 93 95 336 332 421 356 392 229 176 245 282 252 293
0 0 0 0 0 0 0 0 0 0 0 0 0 0 0 11 13 11 22 7 8 101 227 119 229 54 51 73 66 61 105 112
0 0 0 0 0 0 0 0 0 0 0 0 0 0 0 0 0 0 3 1 2 25 25 6 0 2 1 5 39 43 98 68
0 0 0 0 0 0 0 0 0 0 0 0 0 0 0 0 0 0 0 0 0 0 0 0 0 0 0 3 2 0 0 26

GFSFLT1_con_mucape_129.txt.gz
CAPE
0 0 0 0 0 0 0 0 0 2328 2980 2807 2587 2636 2506 2383 2045 1928 2530 2258 2199 2787 2111 2105 2105 2320 2089 1930 1707 1625 1627 1275
0 0 0 0 1 0 0 0 0 66 2556 2522 2702 2406 2439 2417 2190 1943 2261 2237 2179 2149 2100 1813 1920 1796 1812 1678 1477 1574 1510 1477
0 0 1 10 13 19 1 0 0 0 1716 2591 2493 2586 2389 2371 2079 2021 1938 2173 2448 1839 1784 1981 1864 1896 1930 1455 1238 1487 1530 1444
0 0 0 0 0 0 3 4 0 0 184 2061 2268 2775 2476 2346 2064 1990 2234 2363 2172 1701 1563 2141 1602 1498 1842 1359 1376 1348 1153 1044
0 0 0 0 0 0 0 3 11 4 81 888 2125 1935 2182 2040 1868 1909 1910 2355 2240 1974 1706 2021 2077 1919 1961 1898 1129 1360 991 813
0 0 0 0 0 2 2 0 0 0 86 991 1832 1659 2234 1908 1848 1864 2341 2533 2421 2377 2139 2186 2527 2521 2235 2376 1274 1300 1184 1228
0 0 0 0 2 2 44 25 3 0 1 978 1092 1946 1366 1359 1333 1753 2326 2135 2077 2143 2235 2240 2534 2691 2175 1993 2026 874 1257 1260
0 0 3 14 35 136 207 195 114 12 2 751 1090 1037 1057 737 383 0 1497 1986 1923 1999 2115 1987 2120 2405 2179 1829 1934 1520 1261 1586
0 0 28 143 138 191 243 258 340 202 1 247 755 984 964 724 140 58 974 1786 1794 1927 2283 1872 1512 1723 2054 1828 1691 1584 1499 1606
0 0 19 0 174 244 224 168 341 393 341 58 752 690 412 168 47 489 768 1392 1342 1657 1434 1570 1483 1151 1382 1535 1452 1735 1647 1570
0 0 0 15 77 200 244 197 341 292 350 404 503 556 537 691 714 653 496 710 637 638 1069 975 1300 1188 960 736 914 1365 1354 1428
0 0 0 0 0 79 199 185 60 120 107 88 91 111 127 192 132 29 36 10 0 8 80 294 839 989 982 747 703 1055 1238 1043
0 0 0 0 0 76 194 249 224 27 86 27 16 6 6 0 13 0 0 0 4 29 95 107 301 323 404 533 717 829 790 859
0 0 0 0 0 0 0 44 250 162 67 30 3 0 1 0 8 2 9 21 21 58 68 108 215 368 336 330 507 618 645 859
0 0 0 0 0 0 0 0 1 50 117 127 71 59 15 8 0 0 2 18 16 44 106 230 255 243 113 222 251 487 437 539
0 0 0 0 0 0 0 0 0 0 0 7 7 1 0 0 6 13 20 2 13 76 111 140 142 201 217 318 183 244 393 416
0 0 0 0 0 0 0 0 0 0 0 0 0 0 0 0 0 12 2 1 3 13 19 4 50 124 139 20 22 122 169 285
0 0 0 0 0 0 0 0 0 0 0 0 0 0 0 0 0 0 0 0 0 0 0 0 0 0 2 0 0 26 15 19
0 0 0 0 0 0 0 0 0 0 0 0 0 0 0 0 0 0 0 0 0 0 0 0 0 0 0 0 0 0 0 0